Time,TemperatureF,DewpointF,PressureIn,WindDirection,WindDirectionDegrees,WindSpeedMPH,WindSpeedGustMPH,Humidity,HourlyPrecipIn,Conditions,Clouds,dailyrainin,SoftwareType,DateUTC
2013-12-24 00:00:00,25.7,19.2,30.27,NE,46,3.0,6.0,76,0.00,,,0.05,Wunderground v.1.12,2013-12-24 05:00:00,
2013-12-24 00:01:00,25.7,19.2,30.27,NNE,29,4.0,6.0,76,0.00,,,0.05,Wunderground v.1.12,2013-12-24 05:01:00,
2013-12-24 00:06:00,25.7,19.2,30.27,NE,56,1.0,6.0,76,0.00,,,0.00,Wunderground v.1.12,2013-12-24 05:06:00,
2013-12-24 00:11:00,25.7,18.9,30.27,NE,41,3.0,6.0,75,0.00,,,0.00,Wunderground v.1.12,2013-12-24 05:11:00,
2013-12-24 00:12:00,25.6,18.8,30.28,NNE,21,2.0,4.0,75,0.00,,,0.00,Wunderground v.1.12,2013-12-24 05:12:00,
2013-12-24 00:16:00,25.7,18.9,30.27,NNE,33,3.0,5.0,75,0.00,,,0.00,Wunderground v.1.12,2013-12-24 05:16:00,
2013-12-24 00:17:00,25.7,18.9,30.28,NE,34,2.0,5.0,75,0.00,,,0.00,Wunderground v.1.12,2013-12-24 05:17:00,
2013-12-24 00:21:00,25.6,19.1,30.27,NE,41,2.0,3.0,76,0.00,,,0.00,Wunderground v.1.12,2013-12-24 05:21:00,
2013-12-24 00:22:00,25.6,19.1,30.27,North,354,5.0,5.0,76,0.00,,,0.00,Wunderground v.1.12,2013-12-24 05:22:00,
2013-12-24 00:26:00,25.6,19.1,30.27,NW,324,0.0,2.0,76,0.00,,,0.00,Wunderground v.1.12,2013-12-24 05:26:00,
2013-12-24 00:27:00,25.6,19.1,30.28,North,8,4.0,4.0,76,0.00,,,0.00,Wunderground v.1.12,2013-12-24 05:27:00,
2013-12-24 00:28:00,25.6,19.1,30.28,NE,34,4.0,6.0,76,0.00,,,0.00,Wunderground v.1.12,2013-12-24 05:28:00,
2013-12-24 00:31:00,25.6,19.1,30.27,NE,49,6.0,6.0,76,0.00,,,0.00,Wunderground v.1.12,2013-12-24 05:31:00,
2013-12-24 00:32:00,25.6,19.1,30.27,NNW,348,4.0,6.0,76,0.00,,,0.00,Wunderground v.1.12,2013-12-24 05:32:00,
2013-12-24 00:33:00,25.6,19.1,30.27,NE,39,2.0,6.0,76,0.00,,,0.00,Wunderground v.1.12,2013-12-24 05:33:00,
2013-12-24 00:37:00,25.6,19.1,30.27,North,6,4.0,4.0,76,0.00,,,0.00,Wunderground v.1.12,2013-12-24 05:37:00,
2013-12-24 00:38:00,25.5,19.0,30.27,NE,37,4.0,4.0,76,0.00,,,0.00,Wunderground v.1.12,2013-12-24 05:38:00,
2013-12-24 00:39:00,25.5,19.0,30.27,NNE,15,2.0,5.0,76,0.00,,,0.00,Wunderground v.1.12,2013-12-24 05:39:00,
2013-12-24 00:42:00,25.5,19.3,30.27,NE,49,2.0,4.0,77,0.00,,,0.00,Wunderground v.1.12,2013-12-24 05:42:00,
2013-12-24 00:43:00,25.5,19.3,30.27,North,9,2.0,5.0,77,0.00,,,0.00,Wunderground v.1.12,2013-12-24 05:43:00,
2013-12-24 00:44:00,25.5,19.0,30.27,NE,43,2.0,5.0,76,0.00,,,0.00,Wunderground v.1.12,2013-12-24 05:44:00,
2013-12-24 00:47:00,25.5,19.3,30.27,NE,39,5.0,5.0,77,0.00,,,0.00,Wunderground v.1.12,2013-12-24 05:47:00,
2013-12-24 00:48:00,25.5,19.3,30.27,NNE,12,3.0,5.0,77,0.00,,,0.00,Wunderground v.1.12,2013-12-24 05:48:00,
2013-12-24 00:49:00,25.5,19.3,30.27,NE,37,3.0,5.0,77,0.00,,,0.00,Wunderground v.1.12,2013-12-24 05:49:00,
2013-12-24 00:52:00,25.5,19.3,30.27,NE,41,7.0,9.0,77,0.00,,,0.00,Wunderground v.1.12,2013-12-24 05:52:00,
2013-12-24 00:53:00,25.5,19.3,30.27,NNE,25,3.0,9.0,77,0.00,,,0.00,Wunderground v.1.12,2013-12-24 05:53:00,
2013-12-24 00:54:00,25.5,19.3,30.27,North,354,1.0,9.0,77,0.00,,,0.00,Wunderground v.1.12,2013-12-24 05:54:00,
2013-12-24 00:55:00,25.5,19.3,30.27,North,349,3.0,9.0,77,0.00,,,0.00,Wunderground v.1.12,2013-12-24 05:55:00,
2013-12-24 00:57:00,25.5,19.3,30.27,NE,37,2.0,3.0,77,0.00,,,0.00,Wunderground v.1.12,2013-12-24 05:57:00,
2013-12-24 00:59:00,25.5,19.3,30.27,North,1,3.0,3.0,77,0.00,,,0.00,Wunderground v.1.12,2013-12-24 05:59:00,
2013-12-24 01:00:00,25.5,19.3,30.27,NE,40,4.0,6.0,77,0.00,,,0.00,Wunderground v.1.12,2013-12-24 06:00:00,
2013-12-24 01:02:00,25.5,19.3,30.27,NNE,30,5.0,9.0,77,0.00,,,0.00,Wunderground v.1.12,2013-12-24 06:02:00,
2013-12-24 01:04:00,25.5,19.3,30.27,NNE,27,1.0,9.0,77,0.00,,,0.00,Wunderground v.1.12,2013-12-24 06:04:00,
2013-12-24 01:05:00,25.5,19.3,30.27,WNW,288,1.0,9.0,77,0.00,,,0.00,Wunderground v.1.12,2013-12-24 06:05:00,
2013-12-24 01:07:00,25.5,19.3,30.27,NNE,32,2.0,9.0,77,0.00,,,0.00,Wunderground v.1.12,2013-12-24 06:07:00,
2013-12-24 01:09:00,25.5,19.3,30.27,NE,53,3.0,9.0,77,0.00,,,0.00,Wunderground v.1.12,2013-12-24 06:09:00,
2013-12-24 01:10:00,25.5,19.3,30.27,NNE,27,5.0,9.0,77,0.00,,,0.00,Wunderground v.1.12,2013-12-24 06:10:00,
2013-12-24 01:12:00,25.4,19.5,30.27,NNE,13,1.0,4.0,78,0.00,,,0.00,Wunderground v.1.12,2013-12-24 06:12:00,
2013-12-24 01:14:00,25.4,19.5,30.27,NNE,19,3.0,5.0,78,0.00,,,0.00,Wunderground v.1.12,2013-12-24 06:14:00,
2013-12-24 01:15:00,25.4,19.5,30.27,NE,41,3.0,5.0,78,0.00,,,0.00,Wunderground v.1.12,2013-12-24 06:15:00,
2013-12-24 01:16:00,25.4,19.5,30.27,NE,37,2.0,6.0,78,0.00,,,0.00,Wunderground v.1.12,2013-12-24 06:16:00,
2013-12-24 01:17:00,25.4,19.5,30.27,NNE,15,3.0,4.0,78,0.00,,,0.00,Wunderground v.1.12,2013-12-24 06:17:00,
2013-12-24 01:19:00,25.4,19.5,30.27,North,6,4.0,5.0,78,0.00,,,0.00,Wunderground v.1.12,2013-12-24 06:19:00,
2013-12-24 01:20:00,25.4,19.5,30.27,NNE,30,3.0,5.0,78,0.00,,,0.00,Wunderground v.1.12,2013-12-24 06:20:00,
2013-12-24 01:21:00,25.4,19.5,30.26,North,8,3.0,5.0,78,0.00,,,0.00,Wunderground v.1.12,2013-12-24 06:21:00,
2013-12-24 01:22:00,25.4,19.5,30.26,NNW,345,3.0,4.0,78,0.00,,,0.00,Wunderground v.1.12,2013-12-24 06:22:00,
2013-12-24 01:24:00,25.4,19.5,30.26,NE,43,4.0,9.0,78,0.00,,,0.00,Wunderground v.1.12,2013-12-24 06:24:00,
2013-12-24 01:25:00,25.4,19.5,30.27,NNE,18,4.0,9.0,78,0.00,,,0.00,Wunderground v.1.12,2013-12-24 06:25:00,
2013-12-24 01:26:00,25.3,19.4,30.26,NE,39,5.0,9.0,78,0.00,,,0.00,Wunderground v.1.12,2013-12-24 06:26:00,
2013-12-24 01:27:00,25.3,19.4,30.26,North,11,4.0,5.0,78,0.00,,,0.00,Wunderground v.1.12,2013-12-24 06:27:00,
2013-12-24 01:28:00,25.3,19.4,30.26,NE,34,2.0,5.0,78,0.00,,,0.00,Wunderground v.1.12,2013-12-24 06:28:00,
2013-12-24 01:30:00,25.3,19.4,30.27,NNW,330,4.0,8.0,78,0.00,,,0.00,Wunderground v.1.12,2013-12-24 06:30:00,
2013-12-24 01:31:00,25.3,19.4,30.26,NNE,25,3.0,4.0,78,0.00,,,0.00,Wunderground v.1.12,2013-12-24 06:31:00,
2013-12-24 01:32:00,25.3,19.4,30.26,NNE,29,6.0,7.0,78,0.00,,,0.00,Wunderground v.1.12,2013-12-24 06:32:00,
2013-12-24 01:33:00,25.2,19.3,30.26,NNE,33,2.0,7.0,78,0.00,,,0.00,Wunderground v.1.12,2013-12-24 06:33:00,
2013-12-24 01:35:00,25.2,19.3,30.26,NNE,18,4.0,7.0,78,0.00,,,0.00,Wunderground v.1.12,2013-12-24 06:35:00,
2013-12-24 01:36:00,25.2,19.3,30.26,NNE,26,6.0,7.0,78,0.00,,,0.00,Wunderground v.1.12,2013-12-24 06:36:00,
2013-12-24 01:37:00,25.2,19.3,30.26,NNW,342,4.0,8.0,78,0.00,,,0.00,Wunderground v.1.12,2013-12-24 06:37:00,
2013-12-24 01:38:00,25.2,19.3,30.26,NNE,25,6.0,8.0,78,0.00,,,0.00,Wunderground v.1.12,2013-12-24 06:38:00,
2013-12-24 01:41:00,25.2,19.6,30.26,NNW,347,3.0,4.0,79,0.00,,,0.00,Wunderground v.1.12,2013-12-24 06:41:00,
2013-12-24 01:42:00,25.2,19.3,30.26,ENE,57,5.0,7.0,78,0.00,,,0.00,Wunderground v.1.12,2013-12-24 06:42:00,
2013-12-24 01:43:00,25.2,19.6,30.26,North,9,5.0,7.0,79,0.00,,,0.00,Wunderground v.1.12,2013-12-24 06:43:00,
2013-12-24 01:46:00,25.2,19.6,30.26,NNE,26,4.0,5.0,79,0.00,,,0.00,Wunderground v.1.12,2013-12-24 06:46:00,
2013-12-24 01:47:00,25.2,19.6,30.26,NNE,27,3.0,6.0,79,0.00,,,0.00,Wunderground v.1.12,2013-12-24 06:47:00,
2013-12-24 01:48:00,25.1,19.5,30.26,NE,34,6.0,8.0,79,0.00,,,0.00,Wunderground v.1.12,2013-12-24 06:48:00,
2013-12-24 01:51:00,25.1,19.5,30.26,NNW,347,2.0,4.0,79,0.00,,,0.00,Wunderground v.1.12,2013-12-24 06:51:00,
2013-12-24 01:52:00,25.1,19.5,30.26,NNE,20,3.0,4.0,79,0.00,,,0.00,Wunderground v.1.12,2013-12-24 06:52:00,
2013-12-24 01:53:00,25.1,19.5,30.26,NE,39,5.0,6.0,79,0.00,,,0.00,Wunderground v.1.12,2013-12-24 06:53:00,
2013-12-24 01:56:00,25.1,19.5,30.26,NNE,18,1.0,4.0,79,0.00,,,0.00,Wunderground v.1.12,2013-12-24 06:56:00,
2013-12-24 01:57:00,25.1,19.5,30.26,North,354,5.0,7.0,79,0.00,,,0.00,Wunderground v.1.12,2013-12-24 06:57:00,
2013-12-24 01:58:00,25.1,19.5,30.26,North,359,3.0,7.0,79,0.00,,,0.00,Wunderground v.1.12,2013-12-24 06:58:00,
2013-12-24 01:59:00,25.1,19.5,30.26,NE,37,3.0,7.0,79,0.00,,,0.00,Wunderground v.1.12,2013-12-24 06:59:00,
2013-12-24 02:01:00,25.0,19.4,30.26,WNW,287,3.0,4.0,79,0.00,,,0.00,Wunderground v.1.12,2013-12-24 07:01:00,
2013-12-24 02:02:00,25.0,19.4,30.26,North,359,8.0,8.0,79,0.00,,,0.00,Wunderground v.1.12,2013-12-24 07:02:00,
2013-12-24 02:03:00,25.0,19.4,30.26,North,360,1.0,8.0,79,0.00,,,0.00,Wunderground v.1.12,2013-12-24 07:03:00,
2013-12-24 02:04:00,25.0,19.4,30.26,NE,39,2.0,8.0,79,0.00,,,0.00,Wunderground v.1.12,2013-12-24 07:04:00,
2013-12-24 02:06:00,25.0,19.4,30.26,NE,43,7.0,7.0,79,0.00,,,0.00,Wunderground v.1.12,2013-12-24 07:06:00,
2013-12-24 02:07:00,25.0,19.4,30.26,NE,44,4.0,7.0,79,0.00,,,0.00,Wunderground v.1.12,2013-12-24 07:07:00,
2013-12-24 02:08:00,25.0,19.4,30.26,NNE,30,3.0,7.0,79,0.00,,,0.00,Wunderground v.1.12,2013-12-24 07:08:00,
2013-12-24 02:09:00,25.0,19.4,30.26,NE,41,2.0,7.0,79,0.00,,,0.00,Wunderground v.1.12,2013-12-24 07:09:00,
2013-12-24 02:11:00,25.0,19.7,30.26,ENE,70,1.0,4.0,80,0.00,,,0.00,Wunderground v.1.12,2013-12-24 07:11:00,
2013-12-24 02:12:00,25.0,19.7,30.26,NNE,22,5.0,8.0,80,0.00,,,0.00,Wunderground v.1.12,2013-12-24 07:12:00,
2013-12-24 02:13:00,25.0,19.4,30.27,NE,40,1.0,8.0,79,0.00,,,0.00,Wunderground v.1.12,2013-12-24 07:13:00,
2013-12-24 02:14:00,25.0,19.4,30.27,NNW,336,2.0,8.0,79,0.00,,,0.00,Wunderground v.1.12,2013-12-24 07:14:00,
2013-12-24 02:17:00,25.0,19.4,30.27,NE,46,2.0,9.0,79,0.00,,,0.00,Wunderground v.1.12,2013-12-24 07:17:00,
2013-12-24 02:18:00,25.0,19.1,30.27,NNE,19,4.0,9.0,78,0.00,,,0.00,Wunderground v.1.12,2013-12-24 07:18:00,
2013-12-24 02:19:00,24.9,19.0,30.27,ENE,62,4.0,9.0,78,0.00,,,0.00,Wunderground v.1.12,2013-12-24 07:19:00,
2013-12-24 02:20:00,25.0,19.1,30.27,NE,44,4.0,9.0,78,0.00,,,0.00,Wunderground v.1.12,2013-12-24 07:20:00,
2013-12-24 02:22:00,25.0,19.1,30.27,NNE,23,0.0,3.0,78,0.00,,,0.00,Wunderground v.1.12,2013-12-24 07:22:00,
2013-12-24 02:23:00,25.0,19.1,30.27,NNE,27,0.0,5.0,78,0.00,,,0.00,Wunderground v.1.12,2013-12-24 07:23:00,
2013-12-24 02:24:00,24.9,18.7,30.27,North,356,3.0,5.0,77,0.00,,,0.00,Wunderground v.1.12,2013-12-24 07:24:00,
2013-12-24 02:25:00,24.9,18.7,30.27,NE,44,2.0,5.0,77,0.00,,,0.00,Wunderground v.1.12,2013-12-24 07:25:00,
2013-12-24 02:27:00,24.9,18.7,30.27,NE,55,1.0,3.0,77,0.00,,,0.00,Wunderground v.1.12,2013-12-24 07:27:00,
2013-12-24 02:28:00,24.9,18.7,30.27,NW,319,3.0,5.0,77,0.00,,,0.00,Wunderground v.1.12,2013-12-24 07:28:00,
2013-12-24 02:29:00,24.9,18.7,30.27,NNW,328,2.0,5.0,77,0.00,,,0.00,Wunderground v.1.12,2013-12-24 07:29:00,
2013-12-24 02:30:00,24.9,18.7,30.27,NW,326,3.0,6.0,77,0.00,,,0.00,Wunderground v.1.12,2013-12-24 07:30:00,
2013-12-24 02:32:00,24.9,18.4,30.27,NNW,345,1.0,8.0,76,0.00,,,0.00,Wunderground v.1.12,2013-12-24 07:32:00,
2013-12-24 02:34:00,24.8,18.3,30.27,NE,44,4.0,8.0,76,0.00,,,0.00,Wunderground v.1.12,2013-12-24 07:34:00,
2013-12-24 02:35:00,24.8,18.3,30.27,NE,39,5.0,8.0,76,0.00,,,0.00,Wunderground v.1.12,2013-12-24 07:35:00,
2013-12-24 02:37:00,24.8,18.3,30.27,North,350,4.0,6.0,76,0.00,,,0.00,Wunderground v.1.12,2013-12-24 07:37:00,
2013-12-24 02:39:00,24.7,18.2,30.27,NW,311,2.0,8.0,76,0.00,,,0.00,Wunderground v.1.12,2013-12-24 07:39:00,
2013-12-24 02:40:00,24.8,18.3,30.27,NE,39,1.0,8.0,76,0.00,,,0.00,Wunderground v.1.12,2013-12-24 07:40:00,
2013-12-24 02:42:00,24.7,18.2,30.27,NNE,15,3.0,4.0,76,0.00,,,0.00,Wunderground v.1.12,2013-12-24 07:42:00,
2013-12-24 02:44:00,24.7,18.2,30.27,NNW,330,3.0,6.0,76,0.00,,,0.00,Wunderground v.1.12,2013-12-24 07:44:00,
2013-12-24 02:45:00,24.7,18.2,30.27,NNE,33,1.0,6.0,76,0.00,,,0.00,Wunderground v.1.12,2013-12-24 07:45:00,
2013-12-24 02:47:00,24.7,18.2,30.27,NE,56,5.0,6.0,76,0.00,,,0.00,Wunderground v.1.12,2013-12-24 07:47:00,
2013-12-24 02:49:00,24.7,18.2,30.27,North,350,2.0,6.0,76,0.00,,,0.00,Wunderground v.1.12,2013-12-24 07:49:00,
2013-12-24 02:50:00,24.7,18.2,30.27,NE,45,2.0,6.0,76,0.00,,,0.00,Wunderground v.1.12,2013-12-24 07:50:00,
2013-12-24 02:52:00,24.6,18.1,30.27,North,352,4.0,5.0,76,0.00,,,0.00,Wunderground v.1.12,2013-12-24 07:52:00,
2013-12-24 02:54:00,24.6,18.1,30.27,NNE,32,7.0,9.0,76,0.00,,,0.00,Wunderground v.1.12,2013-12-24 07:54:00,
2013-12-24 02:55:00,24.6,18.1,30.27,North,356,4.0,9.0,76,0.00,,,0.00,Wunderground v.1.12,2013-12-24 07:55:00,
2013-12-24 02:56:00,24.6,18.1,30.27,WNW,301,3.0,9.0,76,0.00,,,0.00,Wunderground v.1.12,2013-12-24 07:56:00,
2013-12-24 02:57:00,24.6,18.1,30.27,NNE,13,5.0,8.0,76,0.00,,,0.00,Wunderground v.1.12,2013-12-24 07:57:00,
2013-12-24 02:59:00,24.6,18.1,30.27,ENE,57,2.0,8.0,76,0.00,,,0.00,Wunderground v.1.12,2013-12-24 07:59:00,
2013-12-24 03:00:00,24.5,18.0,30.27,NE,47,5.0,8.0,76,0.00,,,0.00,Wunderground v.1.12,2013-12-24 08:00:00,
2013-12-24 03:01:00,24.6,18.1,30.27,NNE,29,6.0,8.0,76,0.00,,,0.00,Wunderground v.1.12,2013-12-24 08:01:00,
2013-12-24 03:02:00,24.6,18.1,30.27,WNW,285,0.0,6.0,76,0.00,,,0.00,Wunderground v.1.12,2013-12-24 08:02:00,
2013-12-24 03:04:00,24.5,18.0,30.27,NE,41,3.0,10.0,76,0.00,,,0.00,Wunderground v.1.12,2013-12-24 08:04:00,
2013-12-24 03:05:00,24.5,18.0,30.27,NNE,21,5.0,10.0,76,0.00,,,0.00,Wunderground v.1.12,2013-12-24 08:05:00,
2013-12-24 03:06:00,24.5,18.0,30.27,NNE,21,5.0,10.0,76,0.00,,,0.00,Wunderground v.1.12,2013-12-24 08:06:00,
2013-12-24 03:07:00,24.5,18.0,30.27,NE,41,2.0,6.0,76,0.00,,,0.00,Wunderground v.1.12,2013-12-24 08:07:00,
2013-12-24 03:09:00,24.5,18.0,30.27,NW,309,4.0,9.0,76,0.00,,,0.00,Wunderground v.1.12,2013-12-24 08:09:00,
2013-12-24 03:10:00,24.5,18.0,30.27,NNW,330,0.0,9.0,76,0.00,,,0.00,Wunderground v.1.12,2013-12-24 08:10:00,
2013-12-24 03:11:00,24.5,18.0,30.27,NNW,340,1.0,9.0,76,0.00,,,0.00,Wunderground v.1.12,2013-12-24 08:11:00,
2013-12-24 03:12:00,24.5,18.0,30.27,NNE,32,2.0,6.0,76,0.00,,,0.00,Wunderground v.1.12,2013-12-24 08:12:00,
2013-12-24 03:14:00,24.5,18.0,30.27,NNW,348,2.0,7.0,76,0.00,,,0.00,Wunderground v.1.12,2013-12-24 08:14:00,
2013-12-24 03:15:00,24.5,18.0,30.27,NE,46,3.0,7.0,76,0.00,,,0.00,Wunderground v.1.12,2013-12-24 08:15:00,
2013-12-24 03:16:00,24.5,18.3,30.27,NE,45,3.0,3.0,77,0.00,,,0.00,Wunderground v.1.12,2013-12-24 08:16:00,
2013-12-24 03:17:00,24.5,18.3,30.27,NE,43,2.0,4.0,77,0.00,,,0.00,Wunderground v.1.12,2013-12-24 08:17:00,
2013-12-24 03:19:00,24.5,18.3,30.27,NE,43,2.0,5.0,77,0.00,,,0.00,Wunderground v.1.12,2013-12-24 08:19:00,
2013-12-24 03:20:00,24.4,18.2,30.27,NE,39,4.0,5.0,77,0.00,,,0.00,Wunderground v.1.12,2013-12-24 08:20:00,
2013-12-24 03:21:00,24.4,18.2,30.27,NNE,33,9.0,10.0,77,0.00,,,0.00,Wunderground v.1.12,2013-12-24 08:21:00,
2013-12-24 03:22:00,24.4,18.2,30.27,North,5,3.0,8.0,77,0.00,,,0.00,Wunderground v.1.12,2013-12-24 08:22:00,
2013-12-24 03:24:00,24.4,17.9,30.27,NE,39,2.0,9.0,76,0.00,,,0.00,Wunderground v.1.12,2013-12-24 08:24:00,
2013-12-24 03:25:00,24.4,17.9,30.27,North,5,2.0,9.0,76,0.00,,,0.00,Wunderground v.1.12,2013-12-24 08:25:00,
2013-12-24 03:26:00,24.4,17.9,30.27,NNE,27,5.0,6.0,76,0.00,,,0.00,Wunderground v.1.12,2013-12-24 08:26:00,
2013-12-24 03:27:00,24.4,18.2,30.27,North,354,2.0,6.0,77,0.00,,,0.00,Wunderground v.1.12,2013-12-24 08:27:00,
2013-12-24 03:28:00,24.4,18.2,30.27,NNE,19,0.0,6.0,77,0.00,,,0.00,Wunderground v.1.12,2013-12-24 08:28:00,
2013-12-24 03:30:00,24.4,18.2,30.27,NE,47,3.0,9.0,77,0.00,,,0.00,Wunderground v.1.12,2013-12-24 08:30:00,
2013-12-24 03:31:00,24.4,18.2,30.27,NNE,20,5.0,10.0,77,0.00,,,0.00,Wunderground v.1.12,2013-12-24 08:31:00,
2013-12-24 03:32:00,24.4,18.2,30.27,NE,43,4.0,10.0,77,0.00,,,0.00,Wunderground v.1.12,2013-12-24 08:32:00,
2013-12-24 03:33:00,24.4,18.2,30.27,NE,34,7.0,10.0,77,0.00,,,0.00,Wunderground v.1.12,2013-12-24 08:33:00,
2013-12-24 03:35:00,24.3,17.8,30.27,NE,56,6.0,10.0,76,0.00,,,0.00,Wunderground v.1.12,2013-12-24 08:35:00,
2013-12-24 03:36:00,24.3,18.1,30.27,NNE,25,2.0,4.0,77,0.00,,,0.00,Wunderground v.1.12,2013-12-24 08:36:00,
2013-12-24 03:37:00,24.3,18.1,30.27,NE,44,5.0,8.0,77,0.00,,,0.00,Wunderground v.1.12,2013-12-24 08:37:00,
2013-12-24 03:38:00,24.3,18.1,30.27,NNE,32,5.0,8.0,77,0.00,,,0.00,Wunderground v.1.12,2013-12-24 08:38:00,
2013-12-24 03:40:00,24.3,18.1,30.27,NNW,329,7.0,8.0,77,0.00,,,0.00,Wunderground v.1.12,2013-12-24 08:40:00,
2013-12-24 03:42:00,24.3,17.8,30.27,North,6,4.0,7.0,76,0.00,,,0.00,Wunderground v.1.12,2013-12-24 08:42:00,
2013-12-24 03:43:00,24.3,17.8,30.27,NE,48,9.0,10.0,76,0.00,,,0.00,Wunderground v.1.12,2013-12-24 08:43:00,
2013-12-24 03:45:00,24.2,17.7,30.27,NNE,26,10.0,12.0,76,0.00,,,0.00,Wunderground v.1.12,2013-12-24 08:45:00,
2013-12-24 03:47:00,24.2,17.7,30.26,ENE,57,4.0,6.0,76,0.00,,,0.00,Wunderground v.1.12,2013-12-24 08:47:00,
2013-12-24 03:48:00,24.2,18.0,30.26,NNE,32,12.0,12.0,77,0.00,,,0.00,Wunderground v.1.12,2013-12-24 08:48:00,
2013-12-24 03:50:00,24.2,17.7,30.26,North,5,5.0,12.0,76,0.00,,,0.00,Wunderground v.1.12,2013-12-24 08:50:00,
2013-12-24 03:52:00,24.2,18.0,30.26,NNW,342,1.0,6.0,77,0.00,,,0.00,Wunderground v.1.12,2013-12-24 08:52:00,
2013-12-24 03:53:00,24.2,18.0,30.26,NNE,25,4.0,6.0,77,0.00,,,0.00,Wunderground v.1.12,2013-12-24 08:53:00,
2013-12-24 03:55:00,24.2,18.0,30.26,NNE,20,5.0,8.0,77,0.00,,,0.00,Wunderground v.1.12,2013-12-24 08:55:00,
2013-12-24 03:56:00,24.2,18.0,30.26,WSW,253,3.0,4.0,77,0.00,,,0.00,Wunderground v.1.12,2013-12-24 08:56:00,
2013-12-24 03:57:00,24.2,18.0,30.26,North,358,1.0,4.0,77,0.00,,,0.00,Wunderground v.1.12,2013-12-24 08:57:00,
2013-12-24 03:58:00,24.2,18.0,30.26,NNW,340,2.0,4.0,77,0.00,,,0.00,Wunderground v.1.12,2013-12-24 08:58:00,
2013-12-24 04:00:00,24.2,18.0,30.26,NNW,342,1.0,4.0,77,0.00,,,0.00,Wunderground v.1.12,2013-12-24 09:00:00,
2013-12-24 04:02:00,24.2,18.0,30.26,NNW,346,4.0,4.0,77,0.00,,,0.00,Wunderground v.1.12,2013-12-24 09:02:00,
2013-12-24 04:03:00,24.2,18.0,30.26,NNW,346,1.0,4.0,77,0.00,,,0.00,Wunderground v.1.12,2013-12-24 09:03:00,
2013-12-24 04:04:00,24.2,18.3,30.26,NE,34,7.0,7.0,78,0.00,,,0.00,Wunderground v.1.12,2013-12-24 09:04:00,
2013-12-24 04:06:00,24.1,17.9,30.26,NE,50,1.0,10.0,77,0.00,,,0.00,Wunderground v.1.12,2013-12-24 09:06:00,
2013-12-24 04:07:00,24.1,17.9,30.26,North,4,2.0,5.0,77,0.00,,,0.00,Wunderground v.1.12,2013-12-24 09:07:00,
2013-12-24 04:08:00,24.1,18.2,30.26,NNW,333,2.0,5.0,78,0.00,,,0.00,Wunderground v.1.12,2013-12-24 09:08:00,
2013-12-24 04:09:00,24.1,18.2,30.26,NNE,23,3.0,7.0,78,0.00,,,0.00,Wunderground v.1.12,2013-12-24 09:09:00,
2013-12-24 04:11:00,24.1,18.2,30.26,NNW,341,3.0,7.0,78,0.00,,,0.00,Wunderground v.1.12,2013-12-24 09:11:00,
2013-12-24 04:12:00,24.1,18.2,30.26,ESE,114,1.0,10.0,78,0.00,,,0.00,Wunderground v.1.12,2013-12-24 09:12:00,
2013-12-24 04:13:00,24.1,18.2,30.25,North,359,3.0,10.0,78,0.00,,,0.00,Wunderground v.1.12,2013-12-24 09:13:00,
2013-12-24 04:14:00,24.1,18.2,30.25,NNW,338,3.0,10.0,78,0.00,,,0.00,Wunderground v.1.12,2013-12-24 09:14:00,
2013-12-24 04:16:00,24.1,18.2,30.25,NE,34,2.0,10.0,78,0.00,,,0.00,Wunderground v.1.12,2013-12-24 09:16:00,
2013-12-24 04:17:00,24.1,18.2,30.26,ENE,61,2.0,7.0,78,0.00,,,0.00,Wunderground v.1.12,2013-12-24 09:17:00,
2013-12-24 04:18:00,24.1,18.2,30.26,NNE,25,1.0,7.0,78,0.00,,,0.00,Wunderground v.1.12,2013-12-24 09:18:00,
2013-12-24 04:20:00,24.1,18.2,30.25,NE,37,2.0,7.0,78,0.00,,,0.00,Wunderground v.1.12,2013-12-24 09:20:00,
2013-12-24 04:21:00,24.1,18.2,30.25,ENE,67,6.0,7.0,78,0.00,,,0.00,Wunderground v.1.12,2013-12-24 09:21:00,
2013-12-24 04:23:00,24.1,18.2,30.26,NE,37,2.0,8.0,78,0.00,,,0.00,Wunderground v.1.12,2013-12-24 09:23:00,
2013-12-24 04:25:00,24.1,18.2,30.25,NE,46,5.0,8.0,78,0.00,,,0.00,Wunderground v.1.12,2013-12-24 09:25:00,
2013-12-24 04:26:00,24.1,18.2,30.25,North,349,5.0,8.0,78,0.00,,,0.00,Wunderground v.1.12,2013-12-24 09:26:00,
2013-12-24 04:28:00,24.1,17.9,30.25,NNE,12,3.0,8.0,77,0.00,,,0.00,Wunderground v.1.12,2013-12-24 09:28:00,
2013-12-24 04:29:00,24.1,17.9,30.25,NNE,15,2.0,8.0,77,0.00,,,0.00,Wunderground v.1.12,2013-12-24 09:29:00,
2013-12-24 04:30:00,24.1,17.9,30.25,NNW,348,3.0,8.0,77,0.00,,,0.00,Wunderground v.1.12,2013-12-24 09:30:00,
2013-12-24 04:31:00,24.1,17.9,30.25,NE,39,3.0,8.0,77,0.00,,,0.00,Wunderground v.1.12,2013-12-24 09:31:00,
2013-12-24 04:33:00,24.1,17.9,30.25,NW,324,1.0,5.0,77,0.00,,,0.00,Wunderground v.1.12,2013-12-24 09:33:00,
2013-12-24 04:34:00,24.1,17.9,30.25,NW,304,0.0,5.0,77,0.00,,,0.00,Wunderground v.1.12,2013-12-24 09:34:00,
2013-12-24 04:35:00,24.1,17.9,30.25,NNW,332,1.0,5.0,77,0.00,,,0.00,Wunderground v.1.12,2013-12-24 09:35:00,
2013-12-24 04:36:00,24.0,17.8,30.25,NE,47,0.0,5.0,77,0.00,,,0.00,Wunderground v.1.12,2013-12-24 09:36:00,
2013-12-24 04:38:00,24.0,17.8,30.25,NE,44,1.0,5.0,77,0.00,,,0.00,Wunderground v.1.12,2013-12-24 09:38:00,
2013-12-24 04:39:00,24.0,17.8,30.25,NNE,25,1.0,5.0,77,0.00,,,0.00,Wunderground v.1.12,2013-12-24 09:39:00,
2013-12-24 04:40:00,24.0,17.8,30.25,North,9,2.0,5.0,77,0.00,,,0.00,Wunderground v.1.12,2013-12-24 09:40:00,
2013-12-24 04:41:00,24.0,17.8,30.25,NE,34,3.0,3.0,77,0.00,,,0.00,Wunderground v.1.12,2013-12-24 09:41:00,
2013-12-24 04:43:00,24.0,18.1,30.25,ENE,65,3.0,4.0,78,0.00,,,0.00,Wunderground v.1.12,2013-12-24 09:43:00,
2013-12-24 04:44:00,24.0,18.1,30.25,NE,53,8.0,8.0,78,0.00,,,0.00,Wunderground v.1.12,2013-12-24 09:44:00,
2013-12-24 04:46:00,24.0,18.1,30.25,North,354,2.0,3.0,78,0.00,,,0.00,Wunderground v.1.12,2013-12-24 09:46:00,
2013-12-24 04:48:00,24.0,18.4,30.25,North,4,7.0,8.0,79,0.00,,,0.00,Wunderground v.1.12,2013-12-24 09:48:00,
2013-12-24 04:49:00,24.0,18.4,30.25,North,8,4.0,8.0,79,0.00,,,0.00,Wunderground v.1.12,2013-12-24 09:49:00,
2013-12-24 04:51:00,24.0,18.4,30.25,NW,305,1.0,3.0,79,0.00,,,0.00,Wunderground v.1.12,2013-12-24 09:51:00,
2013-12-24 04:53:00,24.0,19.0,30.25,West,276,2.0,3.0,81,0.00,,,0.00,Wunderground v.1.12,2013-12-24 09:53:00,
2013-12-24 04:54:00,24.0,19.0,30.25,West,280,1.0,3.0,81,0.00,,,0.00,Wunderground v.1.12,2013-12-24 09:54:00,
2013-12-24 04:55:00,23.9,18.9,30.25,WNW,295,4.0,4.0,81,0.00,,,0.00,Wunderground v.1.12,2013-12-24 09:55:00,
2013-12-24 04:56:00,23.9,19.2,30.25,WNW,297,0.0,2.0,82,0.00,,,0.00,Wunderground v.1.12,2013-12-24 09:56:00,
2013-12-24 04:58:00,23.9,19.5,30.25,NW,308,4.0,8.0,83,0.00,,,0.00,Wunderground v.1.12,2013-12-24 09:58:00,
2013-12-24 04:59:00,23.8,19.4,30.25,WNW,288,2.0,8.0,83,0.00,,,0.00,Wunderground v.1.12,2013-12-24 09:59:00,
2013-12-24 05:00:00,23.8,19.1,30.25,NW,308,1.0,8.0,82,0.00,,,0.00,Wunderground v.1.12,2013-12-24 10:00:00,
2013-12-24 05:01:00,23.8,19.1,30.25,NNW,330,0.0,2.0,82,0.00,,,0.00,Wunderground v.1.12,2013-12-24 10:01:00,
2013-12-24 05:03:00,23.7,19.3,30.25,WNW,295,0.0,2.0,83,0.00,,,0.00,Wunderground v.1.12,2013-12-24 10:03:00,
2013-12-24 05:04:00,23.7,19.3,30.25,NW,306,0.0,2.0,83,0.00,,,0.00,Wunderground v.1.12,2013-12-24 10:04:00,
2013-12-24 05:05:00,23.7,19.3,30.25,NE,40,1.0,2.0,83,0.00,,,0.00,Wunderground v.1.12,2013-12-24 10:05:00,
2013-12-24 05:06:00,23.7,19.3,30.25,East,89,0.0,1.0,83,0.00,,,0.00,Wunderground v.1.12,2013-12-24 10:06:00,
2013-12-24 05:09:00,23.6,18.9,30.25,North,4,1.0,3.0,82,0.00,,,0.00,Wunderground v.1.12,2013-12-24 10:09:00,
2013-12-24 05:10:00,23.7,19.0,30.25,North,5,1.0,3.0,82,0.00,,,0.00,Wunderground v.1.12,2013-12-24 10:10:00,
2013-12-24 05:11:00,23.6,18.6,30.25,East,82,1.0,1.0,81,0.00,,,0.00,Wunderground v.1.12,2013-12-24 10:11:00,
2013-12-24 05:14:00,23.6,18.6,30.25,NNE,19,0.0,2.0,81,0.00,,,0.00,Wunderground v.1.12,2013-12-24 10:14:00,
2013-12-24 05:15:00,23.6,18.6,30.25,NNE,27,0.0,2.0,81,0.00,,,0.00,Wunderground v.1.12,2013-12-24 10:15:00,
2013-12-24 05:16:00,23.6,18.6,30.25,NNW,330,1.0,2.0,81,0.00,,,0.00,Wunderground v.1.12,2013-12-24 10:16:00,
2013-12-24 05:19:00,23.6,18.6,30.25,WNW,297,0.0,2.0,81,0.00,,,0.00,Wunderground v.1.12,2013-12-24 10:19:00,
2013-12-24 05:20:00,23.7,18.7,30.25,NNW,340,1.0,2.0,81,0.00,,,0.00,Wunderground v.1.12,2013-12-24 10:20:00,
2013-12-24 05:21:00,23.7,18.7,30.25,NNE,22,1.0,2.0,81,0.00,,,0.00,Wunderground v.1.12,2013-12-24 10:21:00,
2013-12-24 05:25:00,23.7,18.4,30.25,NE,45,2.0,3.0,80,0.00,,,0.00,Wunderground v.1.12,2013-12-24 10:25:00,
2013-12-24 05:26:00,23.7,18.4,30.25,NNW,335,2.0,5.0,80,0.00,,,0.00,Wunderground v.1.12,2013-12-24 10:26:00,
2013-12-24 05:30:00,23.7,18.4,30.25,North,349,2.0,6.0,80,0.00,,,0.00,Wunderground v.1.12,2013-12-24 10:30:00,
2013-12-24 05:31:00,23.7,18.4,30.25,North,6,1.0,3.0,80,0.00,,,0.00,Wunderground v.1.12,2013-12-24 10:31:00,
2013-12-24 05:32:00,23.7,18.4,30.25,North,6,1.0,3.0,80,0.00,,,0.00,Wunderground v.1.12,2013-12-24 10:32:00,
2013-12-24 05:35:00,23.7,18.4,30.25,NNW,342,1.0,4.0,80,0.00,,,0.00,Wunderground v.1.12,2013-12-24 10:35:00,
2013-12-24 05:36:00,23.7,18.4,30.25,North,360,1.0,4.0,80,0.00,,,0.00,Wunderground v.1.12,2013-12-24 10:36:00,
2013-12-24 05:37:00,23.7,18.4,30.25,ENE,63,2.0,2.0,80,0.00,,,0.00,Wunderground v.1.12,2013-12-24 10:37:00,
2013-12-24 05:40:00,23.7,18.4,30.25,NE,44,0.0,3.0,80,0.00,,,0.00,Wunderground v.1.12,2013-12-24 10:40:00,
2013-12-24 05:41:00,23.7,18.4,30.25,NE,43,0.0,1.0,80,0.00,,,0.00,Wunderground v.1.12,2013-12-24 10:41:00,
2013-12-24 05:42:00,23.7,18.4,30.25,NE,43,0.0,1.0,80,0.00,,,0.00,Wunderground v.1.12,2013-12-24 10:42:00,
2013-12-24 05:45:00,23.7,18.7,30.25,NE,39,1.0,3.0,81,0.00,,,0.00,Wunderground v.1.12,2013-12-24 10:45:00,
2013-12-24 05:46:00,23.8,18.5,30.25,NW,319,3.0,3.0,80,0.00,,,0.00,Wunderground v.1.12,2013-12-24 10:46:00,
2013-12-24 05:47:00,23.7,18.4,30.25,NNE,20,3.0,4.0,80,0.00,,,0.00,Wunderground v.1.12,2013-12-24 10:47:00,
2013-12-24 05:50:00,23.7,18.4,30.25,North,11,1.0,5.0,80,0.00,,,0.00,Wunderground v.1.12,2013-12-24 10:50:00,
2013-12-24 05:51:00,23.8,18.5,30.25,North,359,1.0,5.0,80,0.00,,,0.00,Wunderground v.1.12,2013-12-24 10:51:00,
2013-12-24 05:52:00,23.8,18.5,30.25,North,350,2.0,2.0,80,0.00,,,0.00,Wunderground v.1.12,2013-12-24 10:52:00,
2013-12-24 05:53:00,23.7,18.4,30.25,NNE,23,1.0,2.0,80,0.00,,,0.00,Wunderground v.1.12,2013-12-24 10:53:00,
2013-12-24 05:55:00,23.7,18.4,30.25,North,5,3.0,4.0,80,0.00,,,0.00,Wunderground v.1.12,2013-12-24 10:55:00,
2013-12-24 05:56:00,23.8,18.5,30.25,NE,34,2.0,2.0,80,0.00,,,0.00,Wunderground v.1.12,2013-12-24 10:56:00,
2013-12-24 05:57:00,23.8,18.5,30.25,North,349,1.0,5.0,80,0.00,,,0.00,Wunderground v.1.12,2013-12-24 10:57:00,
2013-12-24 05:58:00,23.8,18.5,30.25,North,358,0.0,5.0,80,0.00,,,0.00,Wunderground v.1.12,2013-12-24 10:58:00,
2013-12-24 06:00:00,23.7,18.1,30.25,North,1,3.0,8.0,79,0.00,,,0.00,Wunderground v.1.12,2013-12-24 11:00:00,
2013-12-24 06:01:00,23.8,18.2,30.25,NE,56,1.0,2.0,79,0.00,,,0.00,Wunderground v.1.12,2013-12-24 11:01:00,
2013-12-24 06:02:00,23.7,18.4,30.25,NNW,336,0.0,2.0,80,0.00,,,0.00,Wunderground v.1.12,2013-12-24 11:02:00,
2013-12-24 06:03:00,23.7,18.4,30.25,SW,215,0.0,2.0,80,0.00,,,0.00,Wunderground v.1.12,2013-12-24 11:03:00,
2013-12-24 06:06:00,23.8,18.5,30.25,North,6,2.0,2.0,80,0.00,,,0.00,Wunderground v.1.12,2013-12-24 11:06:00,
2013-12-24 06:07:00,23.7,18.4,30.25,NNE,19,3.0,3.0,80,0.00,,,0.00,Wunderground v.1.12,2013-12-24 11:07:00,
2013-12-24 06:08:00,23.7,18.4,30.25,NW,321,0.0,3.0,80,0.00,,,0.00,Wunderground v.1.12,2013-12-24 11:08:00,
2013-12-24 06:11:00,23.8,18.5,30.25,NNE,18,0.0,1.0,80,0.00,,,0.00,Wunderground v.1.12,2013-12-24 11:11:00,
2013-12-24 06:12:00,23.8,18.5,30.25,North,353,1.0,1.0,80,0.00,,,0.00,Wunderground v.1.12,2013-12-24 11:12:00,
2013-12-24 06:13:00,23.7,18.4,30.25,NW,322,2.0,6.0,80,0.00,,,0.00,Wunderground v.1.12,2013-12-24 11:13:00,
2013-12-24 06:16:00,23.7,18.4,30.25,NE,41,1.0,3.0,80,0.00,,,0.00,Wunderground v.1.12,2013-12-24 11:16:00,
2013-12-24 06:17:00,23.8,18.5,30.25,North,358,0.0,4.0,80,0.00,,,0.00,Wunderground v.1.12,2013-12-24 11:17:00,
2013-12-24 06:18:00,23.7,18.4,30.25,West,280,1.0,4.0,80,0.00,,,0.00,Wunderground v.1.12,2013-12-24 11:18:00,
2013-12-24 06:19:00,23.8,18.5,30.25,West,278,0.0,4.0,80,0.00,,,0.00,Wunderground v.1.12,2013-12-24 11:19:00,
2013-12-24 06:21:00,23.8,18.5,30.25,NE,37,1.0,1.0,80,0.00,,,0.00,Wunderground v.1.12,2013-12-24 11:21:00,
2013-12-24 06:22:00,23.8,18.5,30.25,NNE,12,1.0,1.0,80,0.00,,,0.00,Wunderground v.1.12,2013-12-24 11:22:00,
2013-12-24 06:23:00,23.8,18.5,30.25,North,5,3.0,3.0,80,0.00,,,0.00,Wunderground v.1.12,2013-12-24 11:23:00,
2013-12-24 06:24:00,23.7,18.4,30.25,North,1,0.0,3.0,80,0.00,,,0.00,Wunderground v.1.12,2013-12-24 11:24:00,
2013-12-24 06:26:00,23.7,18.4,30.25,North,353,1.0,1.0,80,0.00,,,0.00,Wunderground v.1.12,2013-12-24 11:26:00,
2013-12-24 06:27:00,23.7,18.4,30.25,NNE,19,1.0,2.0,80,0.00,,,0.00,Wunderground v.1.12,2013-12-24 11:27:00,
2013-12-24 06:28:00,23.8,18.5,30.25,NNE,25,1.0,2.0,80,0.00,,,0.00,Wunderground v.1.12,2013-12-24 11:28:00,
2013-12-24 06:29:00,23.7,18.4,30.25,NE,34,1.0,2.0,80,0.00,,,0.00,Wunderground v.1.12,2013-12-24 11:29:00,
2013-12-24 06:31:00,23.7,18.4,30.25,NNE,15,0.0,2.0,80,0.00,,,0.00,Wunderground v.1.12,2013-12-24 11:31:00,
2013-12-24 06:32:00,23.7,18.4,30.25,NE,43,1.0,2.0,80,0.00,,,0.00,Wunderground v.1.12,2013-12-24 11:32:00,
2013-12-24 06:33:00,23.7,18.7,30.25,NNE,18,0.0,3.0,81,0.00,,,0.00,Wunderground v.1.12,2013-12-24 11:33:00,
2013-12-24 06:34:00,23.7,18.4,30.25,North,354,2.0,3.0,80,0.00,,,0.00,Wunderground v.1.12,2013-12-24 11:34:00,
2013-12-24 06:36:00,23.7,18.4,30.25,North,5,1.0,1.0,80,0.00,,,0.00,Wunderground v.1.12,2013-12-24 11:36:00,
2013-12-24 06:37:00,23.7,18.7,30.25,North,1,0.0,1.0,81,0.00,,,0.00,Wunderground v.1.12,2013-12-24 11:37:00,
2013-12-24 06:38:00,23.7,18.7,30.25,NNE,21,3.0,5.0,81,0.00,,,0.00,Wunderground v.1.12,2013-12-24 11:38:00,
2013-12-24 06:39:00,23.7,18.4,30.25,North,352,1.0,5.0,80,0.00,,,0.00,Wunderground v.1.12,2013-12-24 11:39:00,
2013-12-24 06:40:00,23.7,18.4,30.25,NNW,346,0.0,5.0,80,0.00,,,0.00,Wunderground v.1.12,2013-12-24 11:40:00,
2013-12-24 06:41:00,23.7,18.4,30.25,North,1,1.0,1.0,80,0.00,,,0.00,Wunderground v.1.12,2013-12-24 11:41:00,
2013-12-24 06:42:00,23.7,18.4,30.25,West,281,1.0,2.0,80,0.00,,,0.00,Wunderground v.1.12,2013-12-24 11:42:00,
2013-12-24 06:44:00,23.7,18.4,30.25,East,82,1.0,3.0,80,0.00,,,0.00,Wunderground v.1.12,2013-12-24 11:44:00,
2013-12-24 06:45:00,23.7,18.4,30.25,NNE,27,1.0,3.0,80,0.00,,,0.00,Wunderground v.1.12,2013-12-24 11:45:00,
2013-12-24 06:46:00,23.7,18.4,30.25,NE,41,0.0,1.0,80,0.00,,,0.00,Wunderground v.1.12,2013-12-24 11:46:00,
2013-12-24 06:47:00,23.7,18.4,30.25,NE,41,1.0,1.0,80,0.00,,,0.00,Wunderground v.1.12,2013-12-24 11:47:00,
2013-12-24 06:49:00,23.6,18.3,30.25,NW,322,1.0,6.0,80,0.00,,,0.00,Wunderground v.1.12,2013-12-24 11:49:00,
2013-12-24 06:50:00,23.6,18.3,30.25,NW,318,0.0,6.0,80,0.00,,,0.00,Wunderground v.1.12,2013-12-24 11:50:00,
2013-12-24 06:51:00,23.6,18.6,30.25,North,1,2.0,3.0,81,0.00,,,0.00,Wunderground v.1.12,2013-12-24 11:51:00,
2013-12-24 06:52:00,23.7,18.7,30.25,North,1,2.0,3.0,81,0.00,,,0.00,Wunderground v.1.12,2013-12-24 11:52:00,
2013-12-24 06:53:00,23.6,18.6,30.25,WNW,300,2.0,3.0,81,0.00,,,0.00,Wunderground v.1.12,2013-12-24 11:53:00,
2013-12-24 06:54:00,23.6,18.6,30.25,NW,305,0.0,3.0,81,0.00,,,0.00,Wunderground v.1.12,2013-12-24 11:54:00,
2013-12-24 06:55:00,23.6,18.6,30.25,NW,305,0.0,3.0,81,0.00,,,0.00,Wunderground v.1.12,2013-12-24 11:55:00,
2013-12-24 06:57:00,23.7,18.7,30.25,NNW,347,2.0,4.0,81,0.00,,,0.00,Wunderground v.1.12,2013-12-24 11:57:00,
2013-12-24 06:58:00,23.6,18.6,30.25,NNW,342,2.0,4.0,81,0.00,,,0.00,Wunderground v.1.12,2013-12-24 11:58:00,
2013-12-24 06:59:00,23.7,18.7,30.25,NE,37,3.0,4.0,81,0.00,,,0.00,Wunderground v.1.12,2013-12-24 11:59:00,
2013-12-24 07:00:00,23.6,18.6,30.25,North,5,5.0,5.0,81,0.00,,,0.00,Wunderground v.1.12,2013-12-24 12:00:00,
2013-12-24 07:02:00,23.6,18.3,30.25,NNE,15,1.0,4.0,80,0.00,,,0.00,Wunderground v.1.12,2013-12-24 12:02:00,
2013-12-24 07:03:00,23.6,18.6,30.25,North,352,2.0,4.0,81,0.00,,,0.00,Wunderground v.1.12,2013-12-24 12:03:00,
2013-12-24 07:04:00,23.6,18.6,30.25,North,356,1.0,6.0,81,0.00,,,0.00,Wunderground v.1.12,2013-12-24 12:04:00,
2013-12-24 07:05:00,23.6,18.6,30.25,North,354,2.0,6.0,81,0.00,,,0.00,Wunderground v.1.12,2013-12-24 12:05:00,
2013-12-24 07:07:00,23.6,18.6,30.25,North,4,0.0,2.0,81,0.00,,,0.00,Wunderground v.1.12,2013-12-24 12:07:00,
2013-12-24 07:08:00,23.6,18.6,30.25,North,349,1.0,2.0,81,0.00,,,0.00,Wunderground v.1.12,2013-12-24 12:08:00,
2013-12-24 07:09:00,23.6,18.6,30.25,WNW,300,1.0,2.0,81,0.00,,,0.00,Wunderground v.1.12,2013-12-24 12:09:00,
2013-12-24 07:10:00,23.6,18.6,30.25,North,360,1.0,2.0,81,0.00,,,0.00,Wunderground v.1.12,2013-12-24 12:10:00,
2013-12-24 07:12:00,23.6,18.6,30.25,ENE,60,0.0,2.0,81,0.00,,,0.00,Wunderground v.1.12,2013-12-24 12:12:00,
2013-12-24 07:13:00,23.6,18.6,30.25,ENE,75,0.0,2.0,81,0.00,,,0.00,Wunderground v.1.12,2013-12-24 12:13:00,
2013-12-24 07:14:00,23.7,18.7,30.25,SW,219,0.0,2.0,81,0.00,,,0.00,Wunderground v.1.12,2013-12-24 12:14:00,
2013-12-24 07:16:00,23.6,18.9,30.25,WNW,284,3.0,3.0,82,0.00,,,0.00,Wunderground v.1.12,2013-12-24 12:16:00,
2013-12-24 07:17:00,23.6,18.6,30.25,North,359,2.0,3.0,81,0.00,,,0.00,Wunderground v.1.12,2013-12-24 12:17:00,
2013-12-24 07:18:00,23.6,18.6,30.25,NNW,347,0.0,3.0,81,0.00,,,0.00,Wunderground v.1.12,2013-12-24 12:18:00,
2013-12-24 07:19:00,23.6,18.6,30.25,NNE,25,3.0,3.0,81,0.00,,,0.00,Wunderground v.1.12,2013-12-24 12:19:00,
2013-12-24 07:21:00,23.6,18.6,30.26,WNW,284,1.0,5.0,81,0.00,,,0.00,Wunderground v.1.12,2013-12-24 12:21:00,
2013-12-24 07:22:00,23.6,18.6,30.26,WNW,283,0.0,2.0,81,0.00,,,0.00,Wunderground v.1.12,2013-12-24 12:22:00,
2013-12-24 07:23:00,23.6,18.9,30.25,NW,312,0.0,2.0,82,0.00,,,0.00,Wunderground v.1.12,2013-12-24 12:23:00,
2013-12-24 07:24:00,23.6,18.9,30.26,WSW,248,1.0,3.0,82,0.00,,,0.00,Wunderground v.1.12,2013-12-24 12:24:00,
2013-12-24 07:26:00,23.6,18.9,30.26,North,5,2.0,3.0,82,0.00,,,0.00,Wunderground v.1.12,2013-12-24 12:26:00,
2013-12-24 07:27:00,23.6,18.9,30.26,NE,44,5.0,5.0,82,0.00,,,0.00,Wunderground v.1.12,2013-12-24 12:27:00,
2013-12-24 07:28:00,23.6,18.9,30.26,NW,321,1.0,6.0,82,0.00,,,0.00,Wunderground v.1.12,2013-12-24 12:28:00,
2013-12-24 07:30:00,23.6,18.9,30.26,NE,40,3.0,6.0,82,0.00,,,0.00,Wunderground v.1.12,2013-12-24 12:30:00,
2013-12-24 07:31:00,23.6,18.9,30.26,WNW,285,2.0,3.0,82,0.00,,,0.00,Wunderground v.1.12,2013-12-24 12:31:00,
2013-12-24 07:33:00,23.6,18.9,30.26,WNW,300,2.0,6.0,82,0.00,,,0.00,Wunderground v.1.12,2013-12-24 12:33:00,
2013-12-24 07:34:00,23.6,18.9,30.26,NE,43,3.0,6.0,82,0.00,,,0.00,Wunderground v.1.12,2013-12-24 12:34:00,
2013-12-24 07:35:00,23.6,19.2,30.26,NW,324,1.0,6.0,83,0.00,,,0.00,Wunderground v.1.12,2013-12-24 12:35:00,
2013-12-24 07:36:00,23.5,19.1,30.27,SW,229,3.0,3.0,83,0.00,,,0.00,Wunderground v.1.12,2013-12-24 12:36:00,
2013-12-24 07:38:00,23.4,19.0,30.26,WNW,298,1.0,4.0,83,0.00,,,0.00,Wunderground v.1.12,2013-12-24 12:38:00,
2013-12-24 07:39:00,23.4,19.0,30.27,NE,39,2.0,4.0,83,0.00,,,0.00,Wunderground v.1.12,2013-12-24 12:39:00,
2013-12-24 07:40:00,23.4,19.0,30.27,North,352,1.0,6.0,83,0.00,,,0.00,Wunderground v.1.12,2013-12-24 12:40:00,
2013-12-24 07:41:00,23.4,19.0,30.26,NNW,330,0.0,2.0,83,0.00,,,0.00,Wunderground v.1.12,2013-12-24 12:41:00,
2013-12-24 07:43:00,23.3,19.2,30.26,NW,311,0.0,2.0,84,0.00,,,0.00,Wunderground v.1.12,2013-12-24 12:43:00,
2013-12-24 07:44:00,23.3,19.2,30.26,NNE,32,2.0,4.0,84,0.00,,,0.00,Wunderground v.1.12,2013-12-24 12:44:00,
2013-12-24 07:45:00,23.3,19.2,30.26,NW,304,2.0,5.0,84,0.00,,,0.00,Wunderground v.1.12,2013-12-24 12:45:00,
2013-12-24 07:46:00,23.3,19.2,30.26,WNW,302,0.0,1.0,84,0.00,,,0.00,Wunderground v.1.12,2013-12-24 12:46:00,
2013-12-24 07:48:00,23.2,19.1,30.26,NNE,22,0.0,3.0,84,0.00,,,0.00,Wunderground v.1.12,2013-12-24 12:48:00,
2013-12-24 07:49:00,23.2,19.4,30.26,NNW,333,0.0,3.0,85,0.00,,,0.00,Wunderground v.1.12,2013-12-24 12:49:00,
2013-12-24 07:50:00,23.2,19.4,30.27,WNW,300,0.0,3.0,85,0.00,,,0.00,Wunderground v.1.12,2013-12-24 12:50:00,
2013-12-24 07:51:00,23.2,19.4,30.27,WNW,295,2.0,4.0,85,0.00,,,0.00,Wunderground v.1.12,2013-12-24 12:51:00,
2013-12-24 07:53:00,23.1,19.3,30.27,NW,319,0.0,4.0,85,0.00,,,0.00,Wunderground v.1.12,2013-12-24 12:53:00,
2013-12-24 07:54:00,23.1,19.5,30.27,West,280,1.0,4.0,86,0.00,,,0.00,Wunderground v.1.12,2013-12-24 12:54:00,
2013-12-24 07:56:00,23.1,19.5,30.26,WNW,300,1.0,4.0,86,0.00,,,0.00,Wunderground v.1.12,2013-12-24 12:56:00,
2013-12-24 07:58:00,23.0,19.4,30.27,NNE,27,0.0,2.0,86,0.00,,,0.00,Wunderground v.1.12,2013-12-24 12:58:00,
2013-12-24 07:59:00,23.0,19.4,30.27,NNE,27,0.0,2.0,86,0.00,,,0.00,Wunderground v.1.12,2013-12-24 12:59:00,
2013-12-24 08:01:00,22.9,19.3,30.27,WNW,293,1.0,4.0,86,0.00,,,0.00,Wunderground v.1.12,2013-12-24 13:01:00,
2013-12-24 08:04:00,22.9,19.6,30.27,NW,322,1.0,6.0,87,0.00,,,0.00,Wunderground v.1.12,2013-12-24 13:04:00,
2013-12-24 08:06:00,22.9,19.6,30.27,WNW,300,2.0,2.0,87,0.00,,,0.00,Wunderground v.1.12,2013-12-24 13:06:00,
2013-12-24 08:09:00,22.8,19.5,30.27,WNW,298,0.0,3.0,87,0.00,,,0.00,Wunderground v.1.12,2013-12-24 13:09:00,
2013-12-24 08:11:00,22.8,19.8,30.27,NW,311,0.0,1.0,88,0.00,,,0.00,Wunderground v.1.12,2013-12-24 13:11:00,
2013-12-24 08:12:00,22.8,19.8,30.27,WNW,285,0.0,1.0,88,0.00,,,0.00,Wunderground v.1.12,2013-12-24 13:12:00,
2013-12-24 08:14:00,22.8,19.8,30.27,ENE,61,2.0,5.0,88,0.00,,,0.00,Wunderground v.1.12,2013-12-24 13:14:00,
2013-12-24 08:16:00,22.9,20.1,30.27,North,11,1.0,3.0,89,0.00,,,0.00,Wunderground v.1.12,2013-12-24 13:16:00,
2013-12-24 08:17:00,22.9,20.1,30.27,North,9,0.0,3.0,89,0.00,,,0.00,Wunderground v.1.12,2013-12-24 13:17:00,
2013-12-24 08:19:00,22.9,20.1,30.27,NNW,344,1.0,4.0,89,0.00,,,0.00,Wunderground v.1.12,2013-12-24 13:19:00,
2013-12-24 08:22:00,22.9,20.1,30.27,North,11,2.0,3.0,89,0.00,,,0.00,Wunderground v.1.12,2013-12-24 13:22:00,
2013-12-24 08:23:00,22.9,20.1,30.27,NW,318,0.0,3.0,89,0.00,,,0.00,Wunderground v.1.12,2013-12-24 13:23:00,
2013-12-24 08:24:00,22.9,20.1,30.27,NNE,21,2.0,3.0,89,0.00,,,0.00,Wunderground v.1.12,2013-12-24 13:24:00,
2013-12-24 08:25:00,23.0,20.2,30.27,WNW,295,1.0,3.0,89,0.00,,,0.00,Wunderground v.1.12,2013-12-24 13:25:00,
2013-12-24 08:27:00,22.9,20.1,30.27,NW,304,0.0,1.0,89,0.00,,,0.00,Wunderground v.1.12,2013-12-24 13:27:00,
2013-12-24 08:28:00,23.0,20.2,30.27,WNW,284,1.0,2.0,89,0.00,,,0.00,Wunderground v.1.12,2013-12-24 13:28:00,
2013-12-24 08:29:00,23.0,20.2,30.27,WNW,295,0.0,2.0,89,0.00,,,0.00,Wunderground v.1.12,2013-12-24 13:29:00,
2013-12-24 08:30:00,22.9,20.1,30.27,NNE,23,3.0,5.0,89,0.00,,,0.00,Wunderground v.1.12,2013-12-24 13:30:00,
2013-12-24 08:32:00,23.0,20.0,30.27,WNW,288,1.0,1.0,88,0.00,,,0.00,Wunderground v.1.12,2013-12-24 13:32:00,
2013-12-24 08:33:00,23.0,20.0,30.27,WNW,282,2.0,2.0,88,0.00,,,0.00,Wunderground v.1.12,2013-12-24 13:33:00,
2013-12-24 08:34:00,22.9,19.9,30.27,WNW,298,1.0,5.0,88,0.00,,,0.00,Wunderground v.1.12,2013-12-24 13:34:00,
2013-12-24 08:35:00,23.0,20.0,30.27,SW,236,1.0,5.0,88,0.00,,,0.00,Wunderground v.1.12,2013-12-24 13:35:00,
2013-12-24 08:37:00,23.0,20.0,30.27,NW,316,1.0,1.0,88,0.00,,,0.00,Wunderground v.1.12,2013-12-24 13:37:00,
2013-12-24 08:38:00,23.0,20.0,30.27,West,277,2.0,2.0,88,0.00,,,0.00,Wunderground v.1.12,2013-12-24 13:38:00,
2013-12-24 08:39:00,23.0,20.0,30.27,WNW,300,0.0,4.0,88,0.00,,,0.00,Wunderground v.1.12,2013-12-24 13:39:00,
2013-12-24 08:40:00,23.0,20.0,30.27,NW,305,0.0,4.0,88,0.00,,,0.00,Wunderground v.1.12,2013-12-24 13:40:00,
2013-12-24 08:42:00,23.0,20.0,30.27,ENE,62,0.0,3.0,88,0.00,,,0.00,Wunderground v.1.12,2013-12-24 13:42:00,
2013-12-24 08:43:00,23.0,20.0,30.27,WSW,245,0.0,3.0,88,0.00,,,0.00,Wunderground v.1.12,2013-12-24 13:43:00,
2013-12-24 08:44:00,23.0,20.0,30.27,WSW,256,0.0,3.0,88,0.00,,,0.00,Wunderground v.1.12,2013-12-24 13:44:00,
2013-12-24 08:45:00,23.0,19.7,30.27,South,174,1.0,3.0,87,0.00,,,0.00,Wunderground v.1.12,2013-12-24 13:45:00,
2013-12-24 08:47:00,23.1,19.8,30.27,WNW,295,1.0,5.0,87,0.00,,,0.00,Wunderground v.1.12,2013-12-24 13:47:00,
2013-12-24 08:48:00,23.1,19.8,30.27,NNW,342,3.0,5.0,87,0.00,,,0.00,Wunderground v.1.12,2013-12-24 13:48:00,
2013-12-24 08:49:00,23.1,19.8,30.27,NE,54,2.0,5.0,87,0.00,,,0.00,Wunderground v.1.12,2013-12-24 13:49:00,
2013-12-24 08:50:00,23.1,19.8,30.27,NE,53,0.0,5.0,87,0.00,,,0.00,Wunderground v.1.12,2013-12-24 13:50:00,
2013-12-24 08:53:00,23.1,19.8,30.27,NNW,330,3.0,4.0,87,0.00,,,0.00,Wunderground v.1.12,2013-12-24 13:53:00,
2013-12-24 08:54:00,23.1,19.5,30.28,NW,304,0.0,4.0,86,0.00,,,0.00,Wunderground v.1.12,2013-12-24 13:54:00,
2013-12-24 08:55:00,23.1,19.5,30.27,NW,308,1.0,4.0,86,0.00,,,0.00,Wunderground v.1.12,2013-12-24 13:55:00,
2013-12-24 08:56:00,23.1,19.5,30.27,WNW,297,5.0,5.0,86,0.00,,,0.00,Wunderground v.1.12,2013-12-24 13:56:00,
2013-12-24 08:58:00,23.0,19.2,30.28,NW,309,1.0,6.0,85,0.00,,,0.00,Wunderground v.1.12,2013-12-24 13:58:00,
2013-12-24 08:59:00,23.0,19.2,30.28,WNW,291,1.0,6.0,85,0.00,,,0.00,Wunderground v.1.12,2013-12-24 13:59:00,
2013-12-24 09:00:00,23.0,19.4,30.28,NW,310,2.0,6.0,86,0.00,,,0.00,Wunderground v.1.12,2013-12-24 14:00:00,
2013-12-24 09:01:00,23.1,19.5,30.27,WNW,297,2.0,2.0,86,0.00,,,0.00,Wunderground v.1.12,2013-12-24 14:01:00,
2013-12-24 09:03:00,23.2,19.6,30.28,West,276,0.0,4.0,86,0.00,,,0.00,Wunderground v.1.12,2013-12-24 14:03:00,
2013-12-24 09:04:00,23.2,19.6,30.28,West,272,1.0,4.0,86,0.00,,,0.00,Wunderground v.1.12,2013-12-24 14:04:00,
2013-12-24 09:05:00,23.3,19.7,30.28,NNE,27,2.0,4.0,86,0.00,,,0.00,Wunderground v.1.12,2013-12-24 14:05:00,
2013-12-24 09:06:00,23.3,19.7,30.28,NNE,19,0.0,2.0,86,0.00,,,0.00,Wunderground v.1.12,2013-12-24 14:06:00,
2013-12-24 09:08:00,23.4,19.8,30.28,NNE,13,11.0,16.0,86,0.00,,,0.00,Wunderground v.1.12,2013-12-24 14:08:00,
2013-12-24 09:09:00,23.4,19.8,30.28,West,267,2.0,16.0,86,0.00,,,0.00,Wunderground v.1.12,2013-12-24 14:09:00,
2013-12-24 09:10:00,23.4,19.6,30.28,WNW,294,2.0,16.0,85,0.00,,,0.00,Wunderground v.1.12,2013-12-24 14:10:00,
2013-12-24 09:11:00,23.4,19.6,30.28,NW,322,1.0,2.0,85,0.00,,,0.00,Wunderground v.1.12,2013-12-24 14:11:00,
2013-12-24 09:13:00,23.3,19.5,30.28,WNW,288,0.0,4.0,85,0.00,,,0.00,Wunderground v.1.12,2013-12-24 14:13:00,
2013-12-24 09:14:00,23.3,19.5,30.28,West,274,1.0,4.0,85,0.00,,,0.00,Wunderground v.1.12,2013-12-24 14:14:00,
2013-12-24 09:15:00,23.3,19.5,30.28,SE,132,1.0,4.0,85,0.00,,,0.00,Wunderground v.1.12,2013-12-24 14:15:00,
2013-12-24 09:16:00,23.4,19.8,30.28,NNW,338,0.0,2.0,86,0.00,,,0.00,Wunderground v.1.12,2013-12-24 14:16:00,
2013-12-24 09:18:00,23.5,19.9,30.28,WNW,294,0.0,2.0,86,0.00,,,0.00,Wunderground v.1.12,2013-12-24 14:18:00,
2013-12-24 09:19:00,23.5,19.9,30.28,WNW,298,2.0,2.0,86,0.00,,,0.00,Wunderground v.1.12,2013-12-24 14:19:00,
2013-12-24 09:20:00,23.5,19.9,30.28,NE,45,4.0,4.0,86,0.00,,,0.00,Wunderground v.1.12,2013-12-24 14:20:00,
2013-12-24 09:21:00,23.5,19.9,30.28,WNW,296,3.0,3.0,86,0.00,,,0.00,Wunderground v.1.12,2013-12-24 14:21:00,
2013-12-24 09:24:00,23.6,20.0,30.29,ENE,64,3.0,3.0,86,0.00,,,0.00,Wunderground v.1.12,2013-12-24 14:24:00,
2013-12-24 09:25:00,23.6,20.0,30.29,NNE,13,1.0,4.0,86,0.00,,,0.00,Wunderground v.1.12,2013-12-24 14:25:00,
2013-12-24 09:26:00,23.6,20.0,30.29,NE,37,0.0,1.0,86,0.00,,,0.00,Wunderground v.1.12,2013-12-24 14:26:00,
2013-12-24 09:29:00,23.7,20.1,30.29,NW,316,1.0,3.0,86,0.00,,,0.00,Wunderground v.1.12,2013-12-24 14:29:00,
2013-12-24 09:30:00,23.8,20.2,30.29,NE,50,4.0,5.0,86,0.00,,,0.00,Wunderground v.1.12,2013-12-24 14:30:00,
2013-12-24 09:31:00,23.8,20.2,30.29,NNW,335,3.0,8.0,86,0.00,,,0.00,Wunderground v.1.12,2013-12-24 14:31:00,
2013-12-24 09:34:00,23.8,19.9,30.29,West,276,0.0,5.0,85,0.00,,,0.00,Wunderground v.1.12,2013-12-24 14:34:00,
2013-12-24 09:35:00,23.9,20.3,30.29,NW,312,1.0,5.0,86,0.00,,,0.00,Wunderground v.1.12,2013-12-24 14:35:00,
2013-12-24 09:36:00,23.9,20.3,30.29,NW,309,2.0,5.0,86,0.00,,,0.00,Wunderground v.1.12,2013-12-24 14:36:00,
2013-12-24 09:40:00,23.9,20.3,30.29,ESE,105,0.0,4.0,86,0.00,,,0.00,Wunderground v.1.12,2013-12-24 14:40:00,
2013-12-24 09:41:00,24.0,20.4,30.29,NE,43,1.0,4.0,86,0.00,,,0.00,Wunderground v.1.12,2013-12-24 14:41:00,
2013-12-24 09:42:00,24.0,20.1,30.29,NNW,340,3.0,10.0,85,0.00,,,0.00,Wunderground v.1.12,2013-12-24 14:42:00,
2013-12-24 09:45:00,23.9,20.0,30.29,WSW,255,2.0,10.0,85,0.00,,,0.00,Wunderground v.1.12,2013-12-24 14:45:00,
2013-12-24 09:46:00,23.9,20.0,30.29,NNE,32,0.0,10.0,85,0.00,,,0.00,Wunderground v.1.12,2013-12-24 14:46:00,
2013-12-24 09:47:00,23.9,20.0,30.29,NW,304,1.0,4.0,85,0.00,,,0.00,Wunderground v.1.12,2013-12-24 14:47:00,
2013-12-24 09:50:00,24.0,20.1,30.29,WNW,297,2.0,4.0,85,0.00,,,0.00,Wunderground v.1.12,2013-12-24 14:50:00,
2013-12-24 09:51:00,23.9,20.0,30.29,NW,321,2.0,4.0,85,0.00,,,0.00,Wunderground v.1.12,2013-12-24 14:51:00,
2013-12-24 09:52:00,23.9,20.0,30.29,WNW,294,3.0,4.0,85,0.00,,,0.00,Wunderground v.1.12,2013-12-24 14:52:00,
2013-12-24 09:55:00,23.9,20.3,30.30,NW,304,0.0,6.0,86,0.00,,,0.00,Wunderground v.1.12,2013-12-24 14:55:00,
2013-12-24 09:56:00,23.9,20.3,30.30,WNW,292,4.0,6.0,86,0.00,,,0.00,Wunderground v.1.12,2013-12-24 14:56:00,
2013-12-24 09:57:00,23.9,20.3,30.30,NW,307,2.0,4.0,86,0.00,,,0.00,Wunderground v.1.12,2013-12-24 14:57:00,
2013-12-24 10:00:00,23.8,20.2,30.29,WNW,301,3.0,5.0,86,0.00,,,0.00,Wunderground v.1.12,2013-12-24 15:00:00,
2013-12-24 10:01:00,23.8,20.2,30.30,North,11,4.0,5.0,86,0.00,,,0.00,Wunderground v.1.12,2013-12-24 15:01:00,
2013-12-24 10:02:00,23.8,20.2,30.30,ENE,61,2.0,5.0,86,0.00,,,0.00,Wunderground v.1.12,2013-12-24 15:02:00,
2013-12-24 10:05:00,23.8,20.5,30.30,West,281,6.0,8.0,87,0.00,,,0.00,Wunderground v.1.12,2013-12-24 15:05:00,
2013-12-24 10:06:00,23.9,20.6,30.29,NNE,27,2.0,2.0,87,0.00,,,0.00,Wunderground v.1.12,2013-12-24 15:06:00,
2013-12-24 10:07:00,23.9,20.6,30.29,NW,325,5.0,5.0,87,0.00,,,0.00,Wunderground v.1.12,2013-12-24 15:07:00,
2013-12-24 10:10:00,23.8,20.5,30.29,WNW,298,2.0,5.0,87,0.00,,,0.00,Wunderground v.1.12,2013-12-24 15:10:00,
2013-12-24 10:11:00,23.8,20.8,30.29,NNE,26,2.0,2.0,88,0.00,,,0.00,Wunderground v.1.12,2013-12-24 15:11:00,
2013-12-24 10:12:00,23.8,20.8,30.30,NNE,15,0.0,2.0,88,0.00,,,0.00,Wunderground v.1.12,2013-12-24 15:12:00,
2013-12-24 10:13:00,23.8,20.8,30.29,SW,222,0.0,2.0,88,0.00,,,0.00,Wunderground v.1.12,2013-12-24 15:13:00,
2013-12-24 10:15:00,24.0,21.2,30.29,WNW,300,2.0,3.0,89,0.00,,,0.00,Wunderground v.1.12,2013-12-24 15:15:00,
2013-12-24 10:16:00,24.0,21.0,30.30,NNW,336,0.0,1.0,88,0.00,,,0.00,Wunderground v.1.12,2013-12-24 15:16:00,
2013-12-24 10:17:00,24.0,21.0,30.30,ENE,78,3.0,4.0,88,0.00,,,0.00,Wunderground v.1.12,2013-12-24 15:17:00,
2013-12-24 10:18:00,24.1,21.1,30.29,West,280,4.0,4.0,88,0.00,,,0.00,Wunderground v.1.12,2013-12-24 15:18:00,
2013-12-24 10:20:00,24.1,21.1,30.30,NNE,23,2.0,6.0,88,0.00,,,0.00,Wunderground v.1.12,2013-12-24 15:20:00,
2013-12-24 10:21:00,24.1,21.1,30.30,NW,310,0.0,2.0,88,0.00,,,0.00,Wunderground v.1.12,2013-12-24 15:21:00,
2013-12-24 10:22:00,24.1,21.1,30.30,North,359,3.0,4.0,88,0.00,,,0.00,Wunderground v.1.12,2013-12-24 15:22:00,
2013-12-24 10:23:00,24.0,21.0,30.30,WSW,257,2.0,4.0,88,0.00,,,0.00,Wunderground v.1.12,2013-12-24 15:23:00,
2013-12-24 10:25:00,24.0,21.0,30.30,WNW,296,3.0,5.0,88,0.00,,,0.00,Wunderground v.1.12,2013-12-24 15:25:00,
2013-12-24 10:26:00,24.0,21.0,30.30,NE,39,2.0,3.0,88,0.00,,,0.00,Wunderground v.1.12,2013-12-24 15:26:00,
2013-12-24 10:27:00,24.0,21.0,30.30,NW,307,3.0,3.0,88,0.00,,,0.00,Wunderground v.1.12,2013-12-24 15:27:00,
2013-12-24 10:29:00,24.0,21.0,30.30,NW,309,0.0,5.0,88,0.00,,,0.00,Wunderground v.1.12,2013-12-24 15:29:00,
2013-12-24 10:30:00,24.0,21.0,30.29,NW,315,5.0,5.0,88,0.00,,,0.00,Wunderground v.1.12,2013-12-24 15:30:00,
2013-12-24 10:31:00,24.0,21.0,30.30,NNW,347,1.0,3.0,88,0.00,,,0.00,Wunderground v.1.12,2013-12-24 15:31:00,
2013-12-24 10:32:00,24.0,21.0,30.30,WNW,294,3.0,3.0,88,0.00,,,0.00,Wunderground v.1.12,2013-12-24 15:32:00,
2013-12-24 10:34:00,24.0,21.0,30.29,WNW,294,3.0,9.0,88,0.00,,,0.00,Wunderground v.1.12,2013-12-24 15:34:00,
2013-12-24 10:35:00,24.0,21.0,30.29,NW,311,2.0,9.0,88,0.00,,,0.00,Wunderground v.1.12,2013-12-24 15:35:00,
2013-12-24 10:36:00,24.1,21.1,30.29,WNW,295,2.0,4.0,88,0.00,,,0.00,Wunderground v.1.12,2013-12-24 15:36:00,
2013-12-24 10:37:00,24.1,21.1,30.29,WNW,292,0.0,4.0,88,0.00,,,0.00,Wunderground v.1.12,2013-12-24 15:37:00,
2013-12-24 10:39:00,24.1,21.1,30.29,NW,312,0.0,4.0,88,0.00,,,0.00,Wunderground v.1.12,2013-12-24 15:39:00,
2013-12-24 10:40:00,24.1,21.1,30.29,NW,311,0.0,4.0,88,0.00,,,0.00,Wunderground v.1.12,2013-12-24 15:40:00,
2013-12-24 10:41:00,24.2,21.4,30.29,WNW,293,0.0,2.0,89,0.00,,,0.00,Wunderground v.1.12,2013-12-24 15:41:00,
2013-12-24 10:42:00,24.2,21.4,30.29,WNW,293,0.0,2.0,89,0.00,,,0.00,Wunderground v.1.12,2013-12-24 15:42:00,
2013-12-24 10:43:00,24.2,21.4,30.30,North,1,0.0,2.0,89,0.00,,,0.00,Wunderground v.1.12,2013-12-24 15:43:00,
2013-12-24 10:44:00,24.2,21.4,30.30,NNE,25,2.0,2.0,89,0.00,,,0.00,Wunderground v.1.12,2013-12-24 15:44:00,
2013-12-24 10:45:00,24.2,21.4,30.29,NE,37,2.0,4.0,89,0.00,,,0.00,Wunderground v.1.12,2013-12-24 15:45:00,
2013-12-24 10:46:00,24.2,21.4,30.30,NNE,18,0.0,3.0,89,0.00,,,0.00,Wunderground v.1.12,2013-12-24 15:46:00,
2013-12-24 10:47:00,24.1,21.3,30.30,NNE,15,1.0,3.0,89,0.00,,,0.00,Wunderground v.1.12,2013-12-24 15:47:00,
2013-12-24 10:48:00,24.1,21.6,30.29,WNW,287,2.0,6.0,90,0.00,,,0.00,Wunderground v.1.12,2013-12-24 15:48:00,
2013-12-24 10:49:00,24.0,21.5,30.29,NNE,27,1.0,6.0,90,0.00,,,0.00,Wunderground v.1.12,2013-12-24 15:49:00,
2013-12-24 10:50:00,24.0,21.5,30.29,WNW,301,1.0,6.0,90,0.00,,,0.00,Wunderground v.1.12,2013-12-24 15:50:00,
2013-12-24 10:52:00,23.9,21.4,30.29,NW,309,3.0,5.0,90,0.00,,,0.00,Wunderground v.1.12,2013-12-24 15:52:00,
2013-12-24 10:53:00,23.8,21.3,30.29,NNW,336,0.0,5.0,90,0.00,,,0.00,Wunderground v.1.12,2013-12-24 15:53:00,
2013-12-24 10:54:00,23.8,21.3,30.29,NE,39,1.0,5.0,90,0.00,,,0.00,Wunderground v.1.12,2013-12-24 15:54:00,
2013-12-24 10:55:00,23.8,21.3,30.29,NNE,32,4.0,5.0,90,0.00,,,0.00,Wunderground v.1.12,2013-12-24 15:55:00,
2013-12-24 10:57:00,23.7,21.2,30.29,NW,312,4.0,4.0,90,0.00,,,0.00,Wunderground v.1.12,2013-12-24 15:57:00,
2013-12-24 10:58:00,23.7,21.2,30.29,NNE,12,0.0,5.0,90,0.00,,,0.00,Wunderground v.1.12,2013-12-24 15:58:00,
2013-12-24 10:59:00,23.6,21.1,30.29,NNE,23,5.0,5.0,90,0.00,,,0.00,Wunderground v.1.12,2013-12-24 15:59:00,
2013-12-24 11:00:00,23.6,21.1,30.29,NE,45,3.0,8.0,90,0.00,,,0.00,Wunderground v.1.12,2013-12-24 16:00:00,
2013-12-24 11:02:00,23.4,20.9,30.29,North,352,7.0,11.0,90,0.00,,,0.00,Wunderground v.1.12,2013-12-24 16:02:00,
2013-12-24 11:03:00,23.4,20.9,30.29,North,350,3.0,11.0,90,0.00,,,0.00,Wunderground v.1.12,2013-12-24 16:03:00,
2013-12-24 11:04:00,23.3,20.5,30.30,West,264,4.0,13.0,89,0.00,,,0.00,Wunderground v.1.12,2013-12-24 16:04:00,
2013-12-24 11:05:00,23.2,20.4,30.30,NNE,15,14.0,15.0,89,0.00,,,0.00,Wunderground v.1.12,2013-12-24 16:05:00,
2013-12-24 11:07:00,22.9,20.1,30.30,North,6,1.0,12.0,89,0.00,,,0.00,Wunderground v.1.12,2013-12-24 16:07:00,
2013-12-24 11:08:00,22.9,20.1,30.30,North,356,2.0,12.0,89,0.00,,,0.00,Wunderground v.1.12,2013-12-24 16:08:00,
2013-12-24 11:09:00,22.8,20.0,30.30,North,352,4.0,12.0,89,0.00,,,0.00,Wunderground v.1.12,2013-12-24 16:09:00,
2013-12-24 11:10:00,22.7,20.2,30.30,NNE,25,6.0,12.0,90,0.00,,,0.00,Wunderground v.1.12,2013-12-24 16:10:00,
2013-12-24 11:12:00,22.5,20.0,30.30,NE,53,10.0,15.0,90,0.00,,,0.00,Wunderground v.1.12,2013-12-24 16:12:00,
2013-12-24 11:13:00,22.4,19.9,30.30,NE,43,6.0,15.0,90,0.00,,,0.00,Wunderground v.1.12,2013-12-24 16:13:00,
2013-12-24 11:14:00,22.3,19.8,30.30,NNW,347,8.0,15.0,90,0.00,,,0.00,Wunderground v.1.12,2013-12-24 16:14:00,
2013-12-24 11:15:00,22.2,19.7,30.30,NE,46,5.0,15.0,90,0.00,,,0.00,Wunderground v.1.12,2013-12-24 16:15:00,
2013-12-24 11:17:00,22.1,19.9,30.30,NNW,338,4.0,12.0,91,0.00,,,0.00,Wunderground v.1.12,2013-12-24 16:17:00,
2013-12-24 11:18:00,22.0,19.8,30.30,NNW,341,1.0,12.0,91,0.00,,,0.00,Wunderground v.1.12,2013-12-24 16:18:00,
2013-12-24 11:19:00,22.0,19.8,30.30,NNW,345,4.0,12.0,91,0.00,,,0.00,Wunderground v.1.12,2013-12-24 16:19:00,
2013-12-24 11:20:00,22.0,19.8,30.30,WNW,300,2.0,12.0,91,0.00,,,0.00,Wunderground v.1.12,2013-12-24 16:20:00,
2013-12-24 11:22:00,22.0,19.8,30.30,NNE,16,4.0,9.0,91,0.00,,,0.00,Wunderground v.1.12,2013-12-24 16:22:00,
2013-12-24 11:23:00,22.0,19.8,30.30,NW,314,0.0,9.0,91,0.00,,,0.00,Wunderground v.1.12,2013-12-24 16:23:00,
2013-12-24 11:24:00,22.0,19.8,30.30,WNW,295,4.0,9.0,91,0.00,,,0.00,Wunderground v.1.12,2013-12-24 16:24:00,
2013-12-24 11:25:00,22.0,19.8,30.30,WNW,298,3.0,9.0,91,0.00,,,0.00,Wunderground v.1.12,2013-12-24 16:25:00,
2013-12-24 11:27:00,22.1,19.9,30.30,North,8,3.0,4.0,91,0.00,,,0.00,Wunderground v.1.12,2013-12-24 16:27:00,
2013-12-24 11:29:00,22.2,19.7,30.30,NNE,15,3.0,4.0,90,0.00,,,0.00,Wunderground v.1.12,2013-12-24 16:29:00,
2013-12-24 11:30:00,22.2,19.5,30.30,WNW,300,4.0,9.0,89,0.00,,,0.00,Wunderground v.1.12,2013-12-24 16:30:00,
2013-12-24 11:31:00,22.2,19.5,30.30,NNE,31,3.0,12.0,89,0.00,,,0.00,Wunderground v.1.12,2013-12-24 16:31:00,
2013-12-24 11:33:00,22.2,19.5,30.30,NNE,33,4.0,7.0,89,0.00,,,0.00,Wunderground v.1.12,2013-12-24 16:33:00,
2013-12-24 11:34:00,22.2,19.5,30.29,WNW,297,3.0,11.0,89,0.00,,,0.00,Wunderground v.1.12,2013-12-24 16:34:00,
2013-12-24 11:35:00,22.3,19.6,30.30,ENE,61,4.0,11.0,89,0.00,,,0.00,Wunderground v.1.12,2013-12-24 16:35:00,
2013-12-24 11:36:00,22.3,19.6,30.30,North,350,5.0,5.0,89,0.00,,,0.00,Wunderground v.1.12,2013-12-24 16:36:00,
2013-12-24 11:38:00,22.4,19.6,30.29,North,1,3.0,9.0,89,0.00,,,0.00,Wunderground v.1.12,2013-12-24 16:38:00,
2013-12-24 11:39:00,22.5,19.7,30.29,North,354,9.0,12.0,89,0.00,,,0.00,Wunderground v.1.12,2013-12-24 16:39:00,
2013-12-24 11:40:00,22.5,19.7,30.29,NE,39,8.0,12.0,89,0.00,,,0.00,Wunderground v.1.12,2013-12-24 16:40:00,
2013-12-24 11:41:00,22.5,19.7,30.29,NE,39,10.0,10.0,89,0.00,,,0.00,Wunderground v.1.12,2013-12-24 16:41:00,
2013-12-24 11:43:00,22.5,19.7,30.29,NE,34,6.0,14.0,89,0.00,,,0.00,Wunderground v.1.12,2013-12-24 16:43:00,
2013-12-24 11:44:00,22.5,19.7,30.29,NE,44,3.0,14.0,89,0.00,,,0.00,Wunderground v.1.12,2013-12-24 16:44:00,
2013-12-24 11:45:00,22.5,20.0,30.29,NE,49,10.0,14.0,90,0.00,,,0.00,Wunderground v.1.12,2013-12-24 16:45:00,
2013-12-24 11:46:00,22.5,20.0,30.29,North,11,5.0,6.0,90,0.00,,,0.00,Wunderground v.1.12,2013-12-24 16:46:00,
2013-12-24 11:48:00,22.5,20.0,30.29,NE,56,5.0,11.0,90,0.00,,,0.00,Wunderground v.1.12,2013-12-24 16:48:00,
2013-12-24 11:49:00,22.4,19.9,30.29,NE,34,6.0,14.0,90,0.00,,,0.00,Wunderground v.1.12,2013-12-24 16:49:00,
2013-12-24 11:50:00,22.3,19.8,30.29,NNE,30,9.0,14.0,90,0.00,,,0.00,Wunderground v.1.12,2013-12-24 16:50:00,
2013-12-24 11:51:00,22.2,19.7,30.29,NE,43,3.0,6.0,90,0.00,,,0.00,Wunderground v.1.12,2013-12-24 16:51:00,
2013-12-24 11:54:00,22.1,19.9,30.29,NE,43,11.0,12.0,91,0.00,,,0.00,Wunderground v.1.12,2013-12-24 16:54:00,
2013-12-24 11:55:00,22.0,19.8,30.29,North,358,4.0,12.0,91,0.00,,,0.00,Wunderground v.1.12,2013-12-24 16:55:00,
2013-12-24 11:56:00,22.0,19.8,30.30,North,5,5.0,13.0,91,0.00,,,0.00,Wunderground v.1.12,2013-12-24 16:56:00,
2013-12-24 11:59:00,21.6,19.4,30.30,NNW,342,5.0,15.0,91,0.00,,,0.00,Wunderground v.1.12,2013-12-24 16:59:00,
2013-12-24 12:00:00,21.2,18.7,30.30,NNE,18,6.0,15.0,90,0.00,,,0.00,Wunderground v.1.12,2013-12-24 17:00:00,
2013-12-24 12:01:00,21.1,18.6,30.30,NNW,345,10.0,12.0,90,0.00,,,0.00,Wunderground v.1.12,2013-12-24 17:01:00,
2013-12-24 12:04:00,20.6,18.1,30.31,North,358,8.0,16.0,90,0.00,,,0.00,Wunderground v.1.12,2013-12-24 17:04:00,
2013-12-24 12:06:00,20.3,18.1,30.31,NNE,16,6.0,8.0,91,0.00,,,0.00,Wunderground v.1.12,2013-12-24 17:06:00,
2013-12-24 12:09:00,19.8,17.6,30.31,NNE,17,10.0,19.0,91,0.00,,,0.00,Wunderground v.1.12,2013-12-24 17:09:00,
2013-12-24 12:11:00,19.6,17.4,30.31,NE,34,7.0,19.0,91,0.00,,,0.00,Wunderground v.1.12,2013-12-24 17:11:00,
2013-12-24 12:14:00,19.2,17.0,30.32,North,9,7.0,21.0,91,0.00,,,0.00,Wunderground v.1.12,2013-12-24 17:14:00,
2013-12-24 12:15:00,19.1,16.9,30.32,NNE,25,5.0,21.0,91,0.00,,,0.00,Wunderground v.1.12,2013-12-24 17:15:00,
2013-12-24 12:16:00,19.0,16.8,30.32,East,86,7.0,10.0,91,0.00,,,0.00,Wunderground v.1.12,2013-12-24 17:16:00,
2013-12-24 12:19:00,18.9,16.7,30.32,North,8,4.0,11.0,91,0.00,,,0.00,Wunderground v.1.12,2013-12-24 17:19:00,
2013-12-24 12:20:00,19.0,16.8,30.32,ENE,67,2.0,11.0,91,0.00,,,0.00,Wunderground v.1.12,2013-12-24 17:20:00,
2013-12-24 12:21:00,18.9,16.7,30.32,North,356,5.0,8.0,91,0.00,,,0.00,Wunderground v.1.12,2013-12-24 17:21:00,
2013-12-24 12:24:00,18.6,16.2,30.32,NNE,22,11.0,12.0,90,0.00,,,0.00,Wunderground v.1.12,2013-12-24 17:24:00,
2013-12-24 12:25:00,18.6,16.2,30.32,NE,39,6.0,14.0,90,0.00,,,0.00,Wunderground v.1.12,2013-12-24 17:25:00,
2013-12-24 12:26:00,18.5,16.1,30.32,NE,46,1.0,5.0,90,0.00,,,0.00,Wunderground v.1.12,2013-12-24 17:26:00,
2013-12-24 12:30:00,18.5,16.1,30.32,North,349,2.0,11.0,90,0.00,,,0.00,Wunderground v.1.12,2013-12-24 17:30:00,
2013-12-24 12:31:00,18.5,16.1,30.32,WNW,301,4.0,7.0,90,0.00,,,0.00,Wunderground v.1.12,2013-12-24 17:31:00,
2013-12-24 12:32:00,18.5,16.1,30.32,North,8,2.0,8.0,90,0.00,,,0.00,Wunderground v.1.12,2013-12-24 17:32:00,
2013-12-24 12:35:00,18.5,16.1,30.32,NE,50,13.0,13.0,90,0.00,,,0.00,Wunderground v.1.12,2013-12-24 17:35:00,
2013-12-24 12:36:00,18.5,16.1,30.32,NNE,25,11.0,14.0,90,0.00,,,0.00,Wunderground v.1.12,2013-12-24 17:36:00,
2013-12-24 12:37:00,18.4,15.7,30.32,NE,46,5.0,14.0,89,0.00,,,0.00,Wunderground v.1.12,2013-12-24 17:37:00,
2013-12-24 12:40:00,18.3,15.3,30.32,North,4,11.0,15.0,88,0.00,,,0.00,Wunderground v.1.12,2013-12-24 17:40:00,
2013-12-24 12:41:00,18.3,15.3,30.32,NE,43,4.0,11.0,88,0.00,,,0.00,Wunderground v.1.12,2013-12-24 17:41:00,
2013-12-24 12:42:00,18.3,15.3,30.32,North,358,3.0,11.0,88,0.00,,,0.00,Wunderground v.1.12,2013-12-24 17:42:00,
2013-12-24 12:45:00,18.3,15.3,30.32,NNE,20,10.0,15.0,88,0.00,,,0.00,Wunderground v.1.12,2013-12-24 17:45:00,
2013-12-24 12:46:00,18.2,15.2,30.32,NE,51,10.0,10.0,88,0.00,,,0.00,Wunderground v.1.12,2013-12-24 17:46:00,
2013-12-24 12:47:00,18.2,15.2,30.32,NNE,30,7.0,11.0,88,0.00,,,0.00,Wunderground v.1.12,2013-12-24 17:47:00,
2013-12-24 12:50:00,18.3,15.3,30.32,NNE,27,10.0,18.0,88,0.00,,,0.00,Wunderground v.1.12,2013-12-24 17:50:00,
2013-12-24 12:51:00,18.4,15.4,30.32,North,360,2.0,17.0,88,0.00,,,0.00,Wunderground v.1.12,2013-12-24 17:51:00,
2013-12-24 12:52:00,18.4,15.4,30.32,NE,47,2.0,17.0,88,0.00,,,0.00,Wunderground v.1.12,2013-12-24 17:52:00,
2013-12-24 12:55:00,18.6,15.6,30.32,NNE,13,12.0,17.0,88,0.00,,,0.00,Wunderground v.1.12,2013-12-24 17:55:00,
2013-12-24 12:56:00,18.5,15.5,30.32,NNE,32,5.0,6.0,88,0.00,,,0.00,Wunderground v.1.12,2013-12-24 17:56:00,
2013-12-24 12:57:00,18.6,15.6,30.32,NNW,330,2.0,6.0,88,0.00,,,0.00,Wunderground v.1.12,2013-12-24 17:57:00,
2013-12-24 13:00:00,18.6,15.6,30.33,NNW,334,4.0,14.0,88,0.00,,,0.00,Wunderground v.1.12,2013-12-24 18:00:00,
2013-12-24 13:01:00,18.6,15.6,30.33,WNW,294,3.0,7.0,88,0.00,,,0.00,Wunderground v.1.12,2013-12-24 18:01:00,
2013-12-24 13:02:00,18.6,15.4,30.33,NE,46,14.0,14.0,87,0.00,,,0.00,Wunderground v.1.12,2013-12-24 18:02:00,
2013-12-24 13:03:00,18.6,15.1,30.33,NE,34,3.0,14.0,86,0.00,,,0.00,Wunderground v.1.12,2013-12-24 18:03:00,
2013-12-24 13:06:00,18.4,14.9,30.33,NE,41,2.0,5.0,86,0.00,,,0.00,Wunderground v.1.12,2013-12-24 18:06:00,
2013-12-24 13:07:00,18.5,15.0,30.33,NW,323,5.0,6.0,86,0.00,,,0.00,Wunderground v.1.12,2013-12-24 18:07:00,
2013-12-24 13:08:00,18.5,15.0,30.33,NE,46,2.0,6.0,86,0.00,,,0.00,Wunderground v.1.12,2013-12-24 18:08:00,
2013-12-24 13:11:00,18.6,14.8,30.33,NE,56,8.0,16.0,85,0.00,,,0.00,Wunderground v.1.12,2013-12-24 18:11:00,
2013-12-24 13:12:00,18.5,14.5,30.33,NW,308,2.0,16.0,84,0.00,,,0.00,Wunderground v.1.12,2013-12-24 18:12:00,
2013-12-24 13:13:00,18.5,14.5,30.33,NNE,15,4.0,16.0,84,0.00,,,0.00,Wunderground v.1.12,2013-12-24 18:13:00,
2013-12-24 13:16:00,18.4,14.4,30.33,NNW,338,8.0,10.0,84,0.00,,,0.00,Wunderground v.1.12,2013-12-24 18:16:00,
2013-12-24 13:17:00,18.4,14.4,30.33,NNW,344,3.0,10.0,84,0.00,,,0.00,Wunderground v.1.12,2013-12-24 18:17:00,
2013-12-24 13:18:00,18.4,14.4,30.33,SSE,166,1.0,10.0,84,0.00,,,0.00,Wunderground v.1.12,2013-12-24 18:18:00,
2013-12-24 13:21:00,18.4,14.6,30.33,NNE,15,2.0,3.0,85,0.00,,,0.00,Wunderground v.1.12,2013-12-24 18:21:00,
2013-12-24 13:22:00,18.3,14.5,30.33,NNW,348,2.0,7.0,85,0.00,,,0.00,Wunderground v.1.12,2013-12-24 18:22:00,
2013-12-24 13:23:00,18.4,14.6,30.33,NW,304,3.0,7.0,85,0.00,,,0.00,Wunderground v.1.12,2013-12-24 18:23:00,
2013-12-24 13:24:00,18.4,14.6,30.34,North,5,6.0,7.0,85,0.00,,,0.00,Wunderground v.1.12,2013-12-24 18:24:00,
2013-12-24 13:26:00,18.3,14.3,30.33,NNE,12,4.0,9.0,84,0.00,,,0.00,Wunderground v.1.12,2013-12-24 18:26:00,
2013-12-24 13:27:00,18.2,13.9,30.33,North,5,6.0,9.0,83,0.00,,,0.00,Wunderground v.1.12,2013-12-24 18:27:00,
2013-12-24 13:28:00,18.2,14.2,30.33,NW,314,1.0,9.0,84,0.00,,,0.00,Wunderground v.1.12,2013-12-24 18:28:00,
2013-12-24 13:29:00,18.2,14.2,30.34,North,352,1.0,9.0,84,0.00,,,0.00,Wunderground v.1.12,2013-12-24 18:29:00,
2013-12-24 13:31:00,18.2,13.9,30.33,North,9,3.0,3.0,83,0.00,,,0.00,Wunderground v.1.12,2013-12-24 18:31:00,
2013-12-24 13:32:00,18.2,13.9,30.33,NNW,342,6.0,8.0,83,0.00,,,0.00,Wunderground v.1.12,2013-12-24 18:32:00,
2013-12-24 13:33:00,18.2,13.9,30.33,NNE,15,0.0,8.0,83,0.00,,,0.00,Wunderground v.1.12,2013-12-24 18:33:00,
2013-12-24 13:34:00,18.1,13.8,30.34,North,355,6.0,8.0,83,0.00,,,0.00,Wunderground v.1.12,2013-12-24 18:34:00,
2013-12-24 13:36:00,18.0,13.4,30.34,North,352,7.0,11.0,82,0.00,,,0.00,Wunderground v.1.12,2013-12-24 18:36:00,
2013-12-24 13:37:00,18.0,13.2,30.34,ENE,57,6.0,11.0,81,0.00,,,0.00,Wunderground v.1.12,2013-12-24 18:37:00,
2013-12-24 13:38:00,17.9,13.1,30.34,NNE,26,1.0,11.0,81,0.00,,,0.00,Wunderground v.1.12,2013-12-24 18:38:00,
2013-12-24 13:39:00,17.9,13.1,30.34,NE,47,3.0,11.0,81,0.00,,,0.00,Wunderground v.1.12,2013-12-24 18:39:00,
2013-12-24 13:42:00,17.7,12.3,30.33,NNW,343,6.0,13.0,79,0.00,,,0.00,Wunderground v.1.12,2013-12-24 18:42:00,
2013-12-24 13:43:00,17.6,11.9,30.33,North,354,4.0,13.0,78,0.00,,,0.00,Wunderground v.1.12,2013-12-24 18:43:00,
2013-12-24 13:44:00,17.4,11.4,30.33,NW,323,1.0,13.0,77,0.00,,,0.00,Wunderground v.1.12,2013-12-24 18:44:00,
2013-12-24 13:45:00,17.4,11.4,30.34,WNW,292,3.0,13.0,77,0.00,,,0.00,Wunderground v.1.12,2013-12-24 18:45:00,
2013-12-24 13:47:00,17.4,11.1,30.34,North,9,7.0,8.0,76,0.00,,,0.00,Wunderground v.1.12,2013-12-24 18:47:00,
2013-12-24 13:48:00,17.3,11.0,30.34,NE,55,7.0,8.0,76,0.00,,,0.00,Wunderground v.1.12,2013-12-24 18:48:00,
2013-12-24 13:50:00,17.3,10.7,30.34,North,9,6.0,14.0,75,0.00,,,0.00,Wunderground v.1.12,2013-12-24 18:50:00,
2013-12-24 13:52:00,17.2,10.3,30.34,NE,43,7.0,9.0,74,0.00,,,0.00,Wunderground v.1.12,2013-12-24 18:52:00,
2013-12-24 13:53:00,17.2,10.0,30.34,NNE,25,12.0,13.0,73,0.00,,,0.00,Wunderground v.1.12,2013-12-24 18:53:00,
2013-12-24 13:55:00,17.1,9.3,30.34,NNE,32,3.0,16.0,71,0.00,,,0.00,Wunderground v.1.12,2013-12-24 18:55:00,
2013-12-24 13:57:00,17.1,9.3,30.34,NNE,12,2.0,11.0,71,0.00,,,0.00,Wunderground v.1.12,2013-12-24 18:57:00,
2013-12-24 13:58:00,17.1,9.0,30.34,NE,40,6.0,11.0,70,0.00,,,0.00,Wunderground v.1.12,2013-12-24 18:58:00,
2013-12-24 14:00:00,17.1,8.7,30.34,NNE,27,6.0,12.0,69,0.00,,,0.00,Wunderground v.1.12,2013-12-24 19:00:00,
2013-12-24 14:02:00,17.1,8.3,30.34,NNW,336,11.0,17.0,68,0.00,,,0.00,Wunderground v.1.12,2013-12-24 19:02:00,
2013-12-24 14:04:00,17.2,8.1,30.34,NNW,338,3.0,18.0,67,0.00,,,0.00,Wunderground v.1.12,2013-12-24 19:04:00,
2013-12-24 14:05:00,17.2,7.8,30.35,NE,34,4.0,19.0,66,0.00,,,0.00,Wunderground v.1.12,2013-12-24 19:05:00,
2013-12-24 14:06:00,17.2,7.8,30.35,NE,50,12.0,13.0,66,0.00,,,0.00,Wunderground v.1.12,2013-12-24 19:06:00,
2013-12-24 14:07:00,17.2,7.4,30.35,NNW,342,3.0,16.0,65,0.00,,,0.00,Wunderground v.1.12,2013-12-24 19:07:00,
2013-12-24 14:09:00,17.2,7.4,30.35,NE,34,2.0,16.0,65,0.00,,,0.00,Wunderground v.1.12,2013-12-24 19:09:00,
2013-12-24 14:11:00,17.2,7.4,30.35,NNE,18,9.0,11.0,65,0.00,,,0.00,Wunderground v.1.12,2013-12-24 19:11:00,
2013-12-24 14:12:00,17.2,7.1,30.35,NNE,20,8.0,12.0,64,0.00,,,0.00,Wunderground v.1.12,2013-12-24 19:12:00,
2013-12-24 14:14:00,17.2,7.1,30.35,NE,36,7.0,12.0,64,0.00,,,0.00,Wunderground v.1.12,2013-12-24 19:14:00,
2013-12-24 14:16:00,17.2,7.1,30.35,WNW,288,2.0,5.0,64,0.00,,,0.00,Wunderground v.1.12,2013-12-24 19:16:00,
2013-12-24 14:17:00,17.3,7.2,30.35,NNE,23,7.0,15.0,64,0.00,,,0.00,Wunderground v.1.12,2013-12-24 19:17:00,
2013-12-24 14:18:00,17.3,6.8,30.35,NE,34,4.0,15.0,63,0.00,,,0.00,Wunderground v.1.12,2013-12-24 19:18:00,
2013-12-24 14:19:00,17.6,7.5,30.35,NNE,29,5.0,15.0,64,0.00,,,0.00,Wunderground v.1.12,2013-12-24 19:19:00,
2013-12-24 14:21:00,17.9,7.4,30.35,WNW,293,3.0,5.0,63,0.00,,,0.00,Wunderground v.1.12,2013-12-24 19:21:00,
2013-12-24 14:22:00,18.2,7.7,30.35,NW,310,1.0,7.0,63,0.00,,,0.00,Wunderground v.1.12,2013-12-24 19:22:00,
2013-12-24 14:23:00,18.2,7.7,30.35,NW,316,2.0,7.0,63,0.00,,,0.00,Wunderground v.1.12,2013-12-24 19:23:00,
2013-12-24 14:24:00,18.7,8.2,30.35,NNE,12,7.0,11.0,63,0.00,,,0.00,Wunderground v.1.12,2013-12-24 19:24:00,
2013-12-24 14:26:00,19.0,8.5,30.35,NNE,16,9.0,10.0,63,0.00,,,0.00,Wunderground v.1.12,2013-12-24 19:26:00,
2013-12-24 14:27:00,19.1,8.2,30.35,NNE,15,7.0,10.0,62,0.00,,,0.00,Wunderground v.1.12,2013-12-24 19:27:00,
2013-12-24 14:28:00,19.2,8.3,30.35,WNW,298,4.0,10.0,62,0.00,,,0.00,Wunderground v.1.12,2013-12-24 19:28:00,
2013-12-24 14:29:00,19.5,8.6,30.35,NNW,333,1.0,10.0,62,0.00,,,0.00,Wunderground v.1.12,2013-12-24 19:29:00,
2013-12-24 14:31:00,19.8,9.2,30.35,WSW,246,2.0,7.0,63,0.00,,,0.00,Wunderground v.1.12,2013-12-24 19:31:00,
2013-12-24 14:32:00,19.9,8.6,30.35,WNW,300,4.0,7.0,61,0.00,,,0.00,Wunderground v.1.12,2013-12-24 19:32:00,
2013-12-24 14:33:00,19.9,8.6,30.35,North,349,3.0,7.0,61,0.00,,,0.00,Wunderground v.1.12,2013-12-24 19:33:00,
2013-12-24 14:35:00,20.1,8.4,30.35,North,6,8.0,11.0,60,0.00,,,0.00,Wunderground v.1.12,2013-12-24 19:35:00,
2013-12-24 14:36:00,20.0,8.3,30.35,North,7,7.0,7.0,60,0.00,,,0.00,Wunderground v.1.12,2013-12-24 19:36:00,
2013-12-24 14:37:00,20.0,8.3,30.35,NNE,12,7.0,8.0,60,0.00,,,0.00,Wunderground v.1.12,2013-12-24 19:37:00,
2013-12-24 14:38:00,19.9,7.9,30.35,NW,308,4.0,9.0,59,0.00,,,0.00,Wunderground v.1.12,2013-12-24 19:38:00,
2013-12-24 14:40:00,19.7,8.0,30.35,NNE,25,4.0,9.0,60,0.00,,,0.00,Wunderground v.1.12,2013-12-24 19:40:00,
2013-12-24 14:42:00,19.5,7.9,30.36,NE,43,4.0,9.0,60,0.00,,,0.00,Wunderground v.1.12,2013-12-24 19:42:00,
2013-12-24 14:43:00,19.4,7.4,30.35,NE,53,4.0,9.0,59,0.00,,,0.00,Wunderground v.1.12,2013-12-24 19:43:00,
2013-12-24 14:45:00,19.2,7.2,30.36,NNW,330,1.0,14.0,59,0.00,,,0.00,Wunderground v.1.12,2013-12-24 19:45:00,
2013-12-24 14:47:00,19.0,7.4,30.36,NW,304,2.0,9.0,60,0.00,,,0.00,Wunderground v.1.12,2013-12-24 19:47:00,
2013-12-24 14:48:00,19.0,7.4,30.36,WNW,284,2.0,9.0,60,0.00,,,0.00,Wunderground v.1.12,2013-12-24 19:48:00,
2013-12-24 14:49:00,18.9,7.3,30.36,NNW,348,7.0,9.0,60,0.00,,,0.00,Wunderground v.1.12,2013-12-24 19:49:00,
2013-12-24 14:50:00,19.0,7.7,30.36,NW,304,7.0,9.0,61,0.00,,,0.00,Wunderground v.1.12,2013-12-24 19:50:00,
2013-12-24 14:52:00,18.8,7.6,30.36,NNE,30,7.0,20.0,61,0.00,,,0.00,Wunderground v.1.12,2013-12-24 19:52:00,
2013-12-24 14:53:00,18.8,7.9,30.36,NNW,338,9.0,20.0,62,0.00,,,0.00,Wunderground v.1.12,2013-12-24 19:53:00,
2013-12-24 14:54:00,18.7,7.5,30.36,NE,53,8.0,20.0,61,0.00,,,0.00,Wunderground v.1.12,2013-12-24 19:54:00,
2013-12-24 14:55:00,18.7,7.8,30.36,ENE,77,5.0,20.0,62,0.00,,,0.00,Wunderground v.1.12,2013-12-24 19:55:00,
2013-12-24 14:57:00,18.7,7.8,30.36,North,5,8.0,15.0,62,0.00,,,0.00,Wunderground v.1.12,2013-12-24 19:57:00,
2013-12-24 14:58:00,18.7,8.2,30.36,NNE,19,5.0,15.0,63,0.00,,,0.00,Wunderground v.1.12,2013-12-24 19:58:00,
2013-12-24 14:59:00,18.6,7.7,30.37,ENE,60,6.0,15.0,62,0.00,,,0.00,Wunderground v.1.12,2013-12-24 19:59:00,
2013-12-24 15:00:00,18.4,7.5,30.36,North,4,9.0,15.0,62,0.00,,,0.00,Wunderground v.1.12,2013-12-24 20:00:00,
2013-12-24 15:02:00,18.2,6.3,30.37,NNE,13,3.0,17.0,59,0.00,,,0.00,Wunderground v.1.12,2013-12-24 20:02:00,
2013-12-24 15:03:00,18.0,6.1,30.37,NNW,332,4.0,17.0,59,0.00,,,0.00,Wunderground v.1.12,2013-12-24 20:03:00,
2013-12-24 15:04:00,17.9,6.0,30.37,ENE,70,8.0,17.0,59,0.00,,,0.00,Wunderground v.1.12,2013-12-24 20:04:00,
2013-12-24 15:06:00,17.8,6.2,30.36,NNW,348,7.0,8.0,60,0.00,,,0.00,Wunderground v.1.12,2013-12-24 20:06:00,
2013-12-24 15:07:00,17.7,6.2,30.37,NNE,32,6.0,12.0,60,0.00,,,0.00,Wunderground v.1.12,2013-12-24 20:07:00,
2013-12-24 15:08:00,17.6,6.1,30.37,NE,37,7.0,12.0,60,0.00,,,0.00,Wunderground v.1.12,2013-12-24 20:08:00,
2013-12-24 15:09:00,17.6,6.1,30.37,North,350,8.0,12.0,60,0.00,,,0.00,Wunderground v.1.12,2013-12-24 20:09:00,
2013-12-24 15:10:00,17.5,6.0,30.37,NE,46,9.0,19.0,60,0.00,,,0.00,Wunderground v.1.12,2013-12-24 20:10:00,
2013-12-24 15:11:00,17.4,5.9,30.37,North,356,9.0,13.0,60,0.00,,,0.00,Wunderground v.1.12,2013-12-24 20:11:00,
2013-12-24 15:12:00,17.3,5.8,30.38,NW,326,13.0,13.0,60,0.00,,,0.00,Wunderground v.1.12,2013-12-24 20:12:00,
2013-12-24 15:13:00,17.3,5.8,30.38,WNW,293,6.0,21.0,60,0.00,,,0.00,Wunderground v.1.12,2013-12-24 20:13:00,
2013-12-24 15:14:00,17.3,5.8,30.38,NNE,16,3.0,21.0,60,0.00,,,0.00,Wunderground v.1.12,2013-12-24 20:14:00,
2013-12-24 15:15:00,17.3,5.8,30.38,NE,56,2.0,21.0,60,0.00,,,0.00,Wunderground v.1.12,2013-12-24 20:15:00,
2013-12-24 15:16:00,17.4,5.9,30.37,North,356,5.0,10.0,60,0.00,,,0.00,Wunderground v.1.12,2013-12-24 20:16:00,
2013-12-24 15:18:00,17.5,6.0,30.38,North,354,4.0,14.0,60,0.00,,,0.00,Wunderground v.1.12,2013-12-24 20:18:00,
2013-12-24 15:19:00,17.6,6.1,30.38,NNE,18,10.0,14.0,60,0.00,,,0.00,Wunderground v.1.12,2013-12-24 20:19:00,
2013-12-24 15:20:00,17.5,5.6,30.37,NE,48,8.0,21.0,59,0.00,,,0.00,Wunderground v.1.12,2013-12-24 20:20:00,
2013-12-24 15:21:00,17.5,5.6,30.38,NW,316,4.0,9.0,59,0.00,,,0.00,Wunderground v.1.12,2013-12-24 20:21:00,
2013-12-24 15:23:00,17.6,6.1,30.38,North,356,12.0,16.0,60,0.00,,,0.00,Wunderground v.1.12,2013-12-24 20:23:00,
2013-12-24 15:24:00,17.7,6.2,30.38,NE,45,4.0,16.0,60,0.00,,,0.00,Wunderground v.1.12,2013-12-24 20:24:00,
2013-12-24 15:25:00,17.7,6.5,30.38,SW,226,3.0,7.0,61,0.00,,,0.00,Wunderground v.1.12,2013-12-24 20:25:00,
2013-12-24 15:26:00,17.8,6.6,30.38,NE,35,6.0,15.0,61,0.00,,,0.00,Wunderground v.1.12,2013-12-24 20:26:00,
2013-12-24 15:28:00,17.8,6.6,30.38,NNW,343,5.0,21.0,61,0.00,,,0.00,Wunderground v.1.12,2013-12-24 20:28:00,
2013-12-24 15:29:00,17.8,6.6,30.38,NNE,29,7.0,21.0,61,0.00,,,0.00,Wunderground v.1.12,2013-12-24 20:29:00,
2013-12-24 15:30:00,17.8,6.6,30.38,NNE,33,12.0,21.0,61,0.00,,,0.00,Wunderground v.1.12,2013-12-24 20:30:00,
2013-12-24 15:31:00,17.8,6.6,30.38,North,6,10.0,12.0,61,0.00,,,0.00,Wunderground v.1.12,2013-12-24 20:31:00,
2013-12-24 15:33:00,17.9,7.4,30.39,North,355,8.0,13.0,63,0.00,,,0.00,Wunderground v.1.12,2013-12-24 20:33:00,
2013-12-24 15:34:00,17.9,7.4,30.39,NNW,338,6.0,13.0,63,0.00,,,0.00,Wunderground v.1.12,2013-12-24 20:34:00,
2013-12-24 15:35:00,17.8,7.0,30.38,East,79,2.0,14.0,62,0.00,,,0.00,Wunderground v.1.12,2013-12-24 20:35:00,
2013-12-24 15:36:00,17.8,7.0,30.39,NE,39,10.0,12.0,62,0.00,,,0.00,Wunderground v.1.12,2013-12-24 20:36:00,
2013-12-24 15:38:00,17.8,7.3,30.39,NE,37,2.0,14.0,63,0.00,,,0.00,Wunderground v.1.12,2013-12-24 20:38:00,
2013-12-24 15:39:00,17.8,7.3,30.39,NE,53,4.0,14.0,63,0.00,,,0.00,Wunderground v.1.12,2013-12-24 20:39:00,
2013-12-24 15:41:00,17.6,6.4,30.39,NNW,330,9.0,17.0,61,0.00,,,0.00,Wunderground v.1.12,2013-12-24 20:41:00,
2013-12-24 15:42:00,17.5,6.3,30.39,NE,34,9.0,17.0,61,0.00,,,0.00,Wunderground v.1.12,2013-12-24 20:42:00,
2013-12-24 15:43:00,17.3,5.8,30.39,NNE,15,16.0,20.0,60,0.00,,,0.00,Wunderground v.1.12,2013-12-24 20:43:00,
2013-12-24 15:44:00,17.3,5.8,30.39,NNW,328,12.0,20.0,60,0.00,,,0.00,Wunderground v.1.12,2013-12-24 20:44:00,
2013-12-24 15:46:00,17.0,5.1,30.40,North,349,14.0,14.0,59,0.00,,,0.00,Wunderground v.1.12,2013-12-24 20:46:00,
2013-12-24 15:47:00,16.8,4.9,30.40,North,6,13.0,15.0,59,0.00,,,0.00,Wunderground v.1.12,2013-12-24 20:47:00,
2013-12-24 15:48:00,16.7,5.2,30.40,NNE,18,12.0,20.0,60,0.00,,,0.00,Wunderground v.1.12,2013-12-24 20:48:00,
2013-12-24 15:49:00,16.7,5.2,30.40,North,11,5.0,20.0,60,0.00,,,0.00,Wunderground v.1.12,2013-12-24 20:49:00,
2013-12-24 15:51:00,16.4,5.3,30.40,NNW,334,6.0,17.0,61,0.00,,,0.00,Wunderground v.1.12,2013-12-24 20:51:00,
2013-12-24 15:52:00,16.3,5.2,30.40,North,356,3.0,17.0,61,0.00,,,0.00,Wunderground v.1.12,2013-12-24 20:52:00,
2013-12-24 15:53:00,16.3,5.2,30.41,NNE,27,7.0,17.0,61,0.00,,,0.00,Wunderground v.1.12,2013-12-24 20:53:00,
2013-12-24 15:54:00,16.2,5.1,30.40,NNE,15,13.0,20.0,61,0.00,,,0.00,Wunderground v.1.12,2013-12-24 20:54:00,
2013-12-24 15:56:00,16.1,5.0,30.41,NE,34,7.0,10.0,61,0.00,,,0.00,Wunderground v.1.12,2013-12-24 20:56:00,
2013-12-24 15:57:00,16.1,5.0,30.41,North,11,9.0,10.0,61,0.00,,,0.00,Wunderground v.1.12,2013-12-24 20:57:00,
2013-12-24 15:59:00,16.0,4.9,30.41,NNE,19,7.0,14.0,61,0.00,,,0.00,Wunderground v.1.12,2013-12-24 20:59:00,
2013-12-24 16:00:00,16.0,4.9,30.41,North,9,9.0,14.0,61,0.00,,,0.00,Wunderground v.1.12,2013-12-24 21:00:00,
2013-12-24 16:01:00,15.9,5.2,30.41,SW,224,2.0,8.0,62,0.00,,,0.00,Wunderground v.1.12,2013-12-24 21:01:00,
2013-12-24 16:02:00,16.0,5.3,30.41,NE,35,12.0,12.0,62,0.00,,,0.00,Wunderground v.1.12,2013-12-24 21:02:00,
2013-12-24 16:04:00,15.8,5.4,30.42,NE,37,6.0,19.0,63,0.00,,,0.00,Wunderground v.1.12,2013-12-24 21:04:00,
2013-12-24 16:05:00,15.8,5.8,30.42,ENE,62,13.0,19.0,64,0.00,,,0.00,Wunderground v.1.12,2013-12-24 21:05:00,
2013-12-24 16:06:00,15.7,6.0,30.42,NW,309,6.0,15.0,65,0.00,,,0.00,Wunderground v.1.12,2013-12-24 21:06:00,
2013-12-24 16:07:00,15.6,5.9,30.42,NW,323,7.0,15.0,65,0.00,,,0.00,Wunderground v.1.12,2013-12-24 21:07:00,
2013-12-24 16:09:00,15.5,6.5,30.42,NNW,329,3.0,15.0,67,0.00,,,0.00,Wunderground v.1.12,2013-12-24 21:09:00,
2013-12-24 16:10:00,15.5,6.5,30.42,WNW,300,10.0,15.0,67,0.00,,,0.00,Wunderground v.1.12,2013-12-24 21:10:00,
2013-12-24 16:12:00,15.3,7.3,30.43,ENE,75,12.0,12.0,70,0.00,,,0.00,Wunderground v.1.12,2013-12-24 21:12:00,
2013-12-24 16:13:00,15.2,7.5,30.43,NE,44,9.0,12.0,71,0.00,,,0.00,Wunderground v.1.12,2013-12-24 21:13:00,
2013-12-24 16:14:00,15.1,7.7,30.43,NNW,330,2.0,12.0,72,0.00,,,0.00,Wunderground v.1.12,2013-12-24 21:14:00,
2013-12-24 16:15:00,15.1,7.7,30.43,North,349,7.0,12.0,72,0.00,,,0.00,Wunderground v.1.12,2013-12-24 21:15:00,
2013-12-24 16:17:00,15.0,7.9,30.43,NE,39,3.0,7.0,73,0.00,,,0.00,Wunderground v.1.12,2013-12-24 21:17:00,
2013-12-24 16:18:00,14.9,7.8,30.43,NNE,25,7.0,8.0,73,0.00,,,0.00,Wunderground v.1.12,2013-12-24 21:18:00,
2013-12-24 16:19:00,14.9,8.1,30.43,North,356,6.0,12.0,74,0.00,,,0.00,Wunderground v.1.12,2013-12-24 21:19:00,
2013-12-24 16:20:00,14.8,8.3,30.43,NE,45,13.0,13.0,75,0.00,,,0.00,Wunderground v.1.12,2013-12-24 21:20:00,
2013-12-24 16:22:00,14.6,8.7,30.43,North,11,7.0,9.0,77,0.00,,,0.00,Wunderground v.1.12,2013-12-24 21:22:00,
2013-12-24 16:23:00,14.6,9.0,30.43,NE,39,12.0,12.0,78,0.00,,,0.00,Wunderground v.1.12,2013-12-24 21:23:00,
2013-12-24 16:24:00,14.5,8.9,30.43,NNE,18,4.0,15.0,78,0.00,,,0.00,Wunderground v.1.12,2013-12-24 21:24:00,
2013-12-24 16:25:00,14.5,8.9,30.43,NNE,15,9.0,15.0,78,0.00,,,0.00,Wunderground v.1.12,2013-12-24 21:25:00,
2013-12-24 16:27:00,14.4,8.8,30.43,NE,43,5.0,16.0,78,0.00,,,0.00,Wunderground v.1.12,2013-12-24 21:27:00,
2013-12-24 16:28:00,14.3,8.7,30.43,NE,45,8.0,16.0,78,0.00,,,0.00,Wunderground v.1.12,2013-12-24 21:28:00,
2013-12-24 16:30:00,14.3,8.7,30.43,NE,44,8.0,16.0,78,0.00,,,0.00,Wunderground v.1.12,2013-12-24 21:30:00,
2013-12-24 16:32:00,14.3,8.7,30.44,North,352,12.0,12.0,78,0.00,,,0.00,Wunderground v.1.12,2013-12-24 21:32:00,
2013-12-24 16:33:00,14.2,8.6,30.44,NW,318,4.0,12.0,78,0.00,,,0.00,Wunderground v.1.12,2013-12-24 21:33:00,
2013-12-24 16:35:00,14.3,8.4,30.43,NE,41,7.0,13.0,77,0.00,,,0.00,Wunderground v.1.12,2013-12-24 21:35:00,
2013-12-24 16:37:00,14.3,8.4,30.43,NNE,25,8.0,8.0,77,0.00,,,0.00,Wunderground v.1.12,2013-12-24 21:37:00,
2013-12-24 16:38:00,14.3,8.4,30.43,North,352,1.0,8.0,77,0.00,,,0.00,Wunderground v.1.12,2013-12-24 21:38:00,
2013-12-24 16:40:00,14.2,7.7,30.44,North,8,10.0,15.0,75,0.00,,,0.00,Wunderground v.1.12,2013-12-24 21:40:00,
2013-12-24 16:41:00,14.2,7.7,30.44,NE,51,7.0,9.0,75,0.00,,,0.00,Wunderground v.1.12,2013-12-24 21:41:00,
2013-12-24 16:42:00,14.2,7.4,30.44,NNE,26,8.0,11.0,74,0.00,,,0.00,Wunderground v.1.12,2013-12-24 21:42:00,
2013-12-24 16:43:00,14.2,7.4,30.44,NNE,25,9.0,11.0,74,0.00,,,0.00,Wunderground v.1.12,2013-12-24 21:43:00,
2013-12-24 16:45:00,14.1,7.6,30.44,NE,37,7.0,11.0,75,0.00,,,0.00,Wunderground v.1.12,2013-12-24 21:45:00,
2013-12-24 16:46:00,14.0,7.5,30.44,NE,51,3.0,7.0,75,0.00,,,0.00,Wunderground v.1.12,2013-12-24 21:46:00,
2013-12-24 16:47:00,14.0,7.5,30.44,NW,318,6.0,7.0,75,0.00,,,0.00,Wunderground v.1.12,2013-12-24 21:47:00,
2013-12-24 16:48:00,14.0,7.5,30.44,North,5,14.0,14.0,75,0.00,,,0.00,Wunderground v.1.12,2013-12-24 21:48:00,
2013-12-24 16:50:00,13.9,7.4,30.44,NE,47,9.0,14.0,75,0.00,,,0.00,Wunderground v.1.12,2013-12-24 21:50:00,
2013-12-24 16:51:00,13.8,7.3,30.44,NNE,32,4.0,9.0,75,0.00,,,0.00,Wunderground v.1.12,2013-12-24 21:51:00,
2013-12-24 16:52:00,13.8,7.3,30.44,NNW,335,1.0,9.0,75,0.00,,,0.00,Wunderground v.1.12,2013-12-24 21:52:00,
2013-12-24 16:53:00,13.7,7.2,30.45,North,11,5.0,9.0,75,0.00,,,0.00,Wunderground v.1.12,2013-12-24 21:53:00,
2013-12-24 16:54:00,13.7,7.2,30.44,WNW,300,6.0,9.0,75,0.00,,,0.00,Wunderground v.1.12,2013-12-24 21:54:00,
2013-12-24 16:55:00,13.7,6.9,30.45,NE,51,8.0,15.0,74,0.00,,,0.00,Wunderground v.1.12,2013-12-24 21:55:00,
2013-12-24 16:56:00,13.7,6.9,30.45,NE,39,9.0,9.0,74,0.00,,,0.00,Wunderground v.1.12,2013-12-24 21:56:00,
2013-12-24 16:57:00,13.7,6.9,30.45,NNE,26,3.0,14.0,74,0.00,,,0.00,Wunderground v.1.12,2013-12-24 21:57:00,
2013-12-24 16:58:00,13.7,6.9,30.45,North,5,3.0,14.0,74,0.00,,,0.00,Wunderground v.1.12,2013-12-24 21:58:00,
2013-12-24 16:59:00,13.6,6.8,30.45,NNE,13,3.0,14.0,74,0.00,,,0.00,Wunderground v.1.12,2013-12-24 21:59:00,
2013-12-24 17:00:00,13.6,6.8,30.45,NE,39,4.0,14.0,74,0.00,,,0.00,Wunderground v.1.12,2013-12-24 22:00:00,
2013-12-24 17:01:00,13.6,6.8,30.45,North,359,3.0,6.0,74,0.00,,,0.00,Wunderground v.1.12,2013-12-24 22:01:00,
2013-12-24 17:02:00,13.6,6.8,30.45,NE,43,1.0,6.0,74,0.00,,,0.00,Wunderground v.1.12,2013-12-24 22:02:00,
2013-12-24 17:03:00,13.5,6.8,30.45,NW,311,2.0,6.0,74,0.00,,,0.00,Wunderground v.1.12,2013-12-24 22:03:00,
2013-12-24 17:04:00,13.5,6.8,30.45,NNW,342,1.0,6.0,74,0.00,,,0.00,Wunderground v.1.12,2013-12-24 22:04:00,
2013-12-24 17:06:00,13.5,6.8,30.45,NE,50,3.0,8.0,74,0.00,,,0.00,Wunderground v.1.12,2013-12-24 22:06:00,
2013-12-24 17:07:00,13.4,6.7,30.45,NNW,328,2.0,8.0,74,0.00,,,0.00,Wunderground v.1.12,2013-12-24 22:07:00,
2013-12-24 17:08:00,13.4,6.7,30.45,North,352,3.0,9.0,74,0.00,,,0.00,Wunderground v.1.12,2013-12-24 22:08:00,
2013-12-24 17:09:00,13.4,6.4,30.45,NE,43,4.0,9.0,73,0.00,,,0.00,Wunderground v.1.12,2013-12-24 22:09:00,
2013-12-24 17:11:00,13.4,6.7,30.45,NNW,347,3.0,4.0,74,0.00,,,0.00,Wunderground v.1.12,2013-12-24 22:11:00,
2013-12-24 17:12:00,13.4,6.7,30.45,NW,325,3.0,5.0,74,0.00,,,0.00,Wunderground v.1.12,2013-12-24 22:12:00,
2013-12-24 17:13:00,13.3,6.3,30.46,NNE,30,3.0,5.0,73,0.00,,,0.00,Wunderground v.1.12,2013-12-24 22:13:00,
2013-12-24 17:14:00,13.3,6.3,30.46,North,358,1.0,6.0,73,0.00,,,0.00,Wunderground v.1.12,2013-12-24 22:14:00,
2013-12-24 17:16:00,13.3,6.6,30.46,NW,315,1.0,5.0,74,0.00,,,0.00,Wunderground v.1.12,2013-12-24 22:16:00,
2013-12-24 17:17:00,13.2,6.5,30.46,NE,37,5.0,5.0,74,0.00,,,0.00,Wunderground v.1.12,2013-12-24 22:17:00,
2013-12-24 17:18:00,13.2,6.2,30.46,North,4,5.0,14.0,73,0.00,,,0.00,Wunderground v.1.12,2013-12-24 22:18:00,
2013-12-24 17:19:00,13.2,5.9,30.46,North,352,4.0,14.0,72,0.00,,,0.00,Wunderground v.1.12,2013-12-24 22:19:00,
2013-12-24 17:20:00,13.2,5.6,30.46,NE,35,6.0,14.0,71,0.00,,,0.00,Wunderground v.1.12,2013-12-24 22:20:00,
2013-12-24 17:21:00,13.2,5.6,30.46,NW,325,5.0,9.0,71,0.00,,,0.00,Wunderground v.1.12,2013-12-24 22:21:00,
2013-12-24 17:22:00,13.2,5.2,30.46,NNE,23,2.0,9.0,70,0.00,,,0.00,Wunderground v.1.12,2013-12-24 22:22:00,
2013-12-24 17:23:00,13.2,5.2,30.46,NNW,333,8.0,10.0,70,0.00,,,0.00,Wunderground v.1.12,2013-12-24 22:23:00,
2013-12-24 17:24:00,13.2,5.2,30.46,NE,56,3.0,13.0,70,0.00,,,0.00,Wunderground v.1.12,2013-12-24 22:24:00,
2013-12-24 17:25:00,13.2,4.9,30.46,WNW,300,2.0,13.0,69,0.00,,,0.00,Wunderground v.1.12,2013-12-24 22:25:00,
2013-12-24 17:26:00,13.2,4.9,30.46,NW,322,9.0,9.0,69,0.00,,,0.00,Wunderground v.1.12,2013-12-24 22:26:00,
2013-12-24 17:27:00,13.2,4.9,30.47,NE,37,2.0,9.0,69,0.00,,,0.00,Wunderground v.1.12,2013-12-24 22:27:00,
2013-12-24 17:28:00,13.2,4.9,30.47,NE,41,2.0,9.0,69,0.00,,,0.00,Wunderground v.1.12,2013-12-24 22:28:00,
2013-12-24 17:29:00,13.2,4.9,30.47,NNE,30,5.0,9.0,69,0.00,,,0.00,Wunderground v.1.12,2013-12-24 22:29:00,
2013-12-24 17:30:00,13.1,4.8,30.47,North,356,6.0,9.0,69,0.00,,,0.00,Wunderground v.1.12,2013-12-24 22:30:00,
2013-12-24 17:31:00,13.2,4.9,30.47,NNE,15,4.0,12.0,69,0.00,,,0.00,Wunderground v.1.12,2013-12-24 22:31:00,
2013-12-24 17:32:00,13.2,4.9,30.47,NW,316,2.0,12.0,69,0.00,,,0.00,Wunderground v.1.12,2013-12-24 22:32:00,
2013-12-24 17:33:00,13.2,4.9,30.47,North,352,9.0,13.0,69,0.00,,,0.00,Wunderground v.1.12,2013-12-24 22:33:00,
2013-12-24 17:34:00,13.2,4.9,30.47,North,355,12.0,13.0,69,0.00,,,0.00,Wunderground v.1.12,2013-12-24 22:34:00,
2013-12-24 17:35:00,13.2,4.9,30.47,NE,53,6.0,13.0,69,0.00,,,0.00,Wunderground v.1.12,2013-12-24 22:35:00,
2013-12-24 17:36:00,13.2,4.9,30.47,NNE,19,3.0,6.0,69,0.00,,,0.00,Wunderground v.1.12,2013-12-24 22:36:00,
2013-12-24 17:37:00,13.2,5.2,30.47,ENE,76,2.0,6.0,70,0.00,,,0.00,Wunderground v.1.12,2013-12-24 22:37:00,
2013-12-24 17:38:00,13.2,5.2,30.48,ENE,58,2.0,6.0,70,0.00,,,0.00,Wunderground v.1.12,2013-12-24 22:38:00,
2013-12-24 17:39:00,13.2,5.2,30.47,North,1,5.0,10.0,70,0.00,,,0.00,Wunderground v.1.12,2013-12-24 22:39:00,
2013-12-24 17:40:00,13.2,5.2,30.47,East,81,2.0,5.0,70,0.00,,,0.00,Wunderground v.1.12,2013-12-24 22:40:00,
2013-12-24 17:41:00,13.2,5.2,30.48,NNE,31,8.0,8.0,70,0.00,,,0.00,Wunderground v.1.12,2013-12-24 22:41:00,
2013-12-24 17:43:00,13.2,5.2,30.47,North,5,6.0,11.0,70,0.00,,,0.00,Wunderground v.1.12,2013-12-24 22:43:00,
2013-12-24 17:44:00,13.2,5.2,30.48,NW,307,4.0,11.0,70,0.00,,,0.00,Wunderground v.1.12,2013-12-24 22:44:00,
2013-12-24 17:46:00,13.2,5.2,30.48,NW,318,7.0,7.0,70,0.00,,,0.00,Wunderground v.1.12,2013-12-24 22:46:00,
2013-12-24 17:48:00,13.2,5.2,30.48,NNW,342,3.0,13.0,70,0.00,,,0.00,Wunderground v.1.12,2013-12-24 22:48:00,
2013-12-24 17:49:00,13.2,5.2,30.48,NNW,332,1.0,13.0,70,0.00,,,0.00,Wunderground v.1.12,2013-12-24 22:49:00,
2013-12-24 17:51:00,13.2,5.2,30.48,NE,43,5.0,5.0,70,0.00,,,0.00,Wunderground v.1.12,2013-12-24 22:51:00,
2013-12-24 17:53:00,13.2,5.2,30.48,WNW,295,2.0,9.0,70,0.00,,,0.00,Wunderground v.1.12,2013-12-24 22:53:00,
2013-12-24 17:54:00,13.2,5.2,30.48,NE,43,3.0,9.0,70,0.00,,,0.00,Wunderground v.1.12,2013-12-24 22:54:00,
2013-12-24 17:56:00,13.2,5.2,30.48,NNE,20,5.0,5.0,70,0.00,,,0.00,Wunderground v.1.12,2013-12-24 22:56:00,
2013-12-24 17:57:00,13.2,5.2,30.48,NW,316,1.0,6.0,70,0.00,,,0.00,Wunderground v.1.12,2013-12-24 22:57:00,
2013-12-24 17:58:00,13.1,5.5,30.48,North,360,7.0,12.0,71,0.00,,,0.00,Wunderground v.1.12,2013-12-24 22:58:00,
2013-12-24 17:59:00,13.1,5.5,30.48,North,352,5.0,12.0,71,0.00,,,0.00,Wunderground v.1.12,2013-12-24 22:59:00,
2013-12-24 18:01:00,13.1,5.1,30.48,NNE,16,7.0,7.0,70,0.00,,,0.00,Wunderground v.1.12,2013-12-24 23:01:00,
2013-12-24 18:02:00,13.1,5.1,30.48,North,350,10.0,14.0,70,0.00,,,0.00,Wunderground v.1.12,2013-12-24 23:02:00,
2013-12-24 18:04:00,13.1,5.1,30.48,North,11,7.0,15.0,70,0.00,,,0.00,Wunderground v.1.12,2013-12-24 23:04:00,
2013-12-24 18:06:00,13.1,5.1,30.48,NNE,18,3.0,6.0,70,0.00,,,0.00,Wunderground v.1.12,2013-12-24 23:06:00,
2013-12-24 18:07:00,13.1,5.1,30.48,North,350,14.0,14.0,70,0.00,,,0.00,Wunderground v.1.12,2013-12-24 23:07:00,
2013-12-24 18:09:00,13.1,5.1,30.49,NNW,333,4.0,14.0,70,0.00,,,0.00,Wunderground v.1.12,2013-12-24 23:09:00,
2013-12-24 18:10:00,13.1,5.5,30.49,NW,311,1.0,14.0,71,0.00,,,0.00,Wunderground v.1.12,2013-12-24 23:10:00,
2013-12-24 18:11:00,13.1,5.5,30.49,NNE,22,8.0,9.0,71,0.00,,,0.00,Wunderground v.1.12,2013-12-24 23:11:00,
2013-12-24 18:12:00,13.1,5.5,30.49,NNE,32,7.0,12.0,71,0.00,,,0.00,Wunderground v.1.12,2013-12-24 23:12:00,
2013-12-24 18:14:00,13.1,5.1,30.49,North,356,9.0,19.0,70,0.00,,,0.00,Wunderground v.1.12,2013-12-24 23:14:00,
2013-12-24 18:15:00,13.1,5.1,30.49,NE,49,5.0,19.0,70,0.00,,,0.00,Wunderground v.1.12,2013-12-24 23:15:00,
2013-12-24 18:16:00,13.1,5.1,30.49,North,351,3.0,8.0,70,0.00,,,0.00,Wunderground v.1.12,2013-12-24 23:16:00,
2013-12-24 18:17:00,13.1,5.1,30.49,NE,53,5.0,8.0,70,0.00,,,0.00,Wunderground v.1.12,2013-12-24 23:17:00,
2013-12-24 18:19:00,13.1,5.1,30.49,North,6,3.0,8.0,70,0.00,,,0.00,Wunderground v.1.12,2013-12-24 23:19:00,
2013-12-24 18:20:00,13.1,5.1,30.49,NE,55,2.0,8.0,70,0.00,,,0.00,Wunderground v.1.12,2013-12-24 23:20:00,
2013-12-24 18:22:00,13.0,5.4,30.48,North,353,8.0,8.0,71,0.00,,,0.00,Wunderground v.1.12,2013-12-24 23:22:00,
2013-12-24 18:24:00,13.0,5.4,30.49,NE,47,5.0,12.0,71,0.00,,,0.00,Wunderground v.1.12,2013-12-24 23:24:00,
2013-12-24 18:25:00,13.0,5.4,30.49,NNE,27,6.0,12.0,71,0.00,,,0.00,Wunderground v.1.12,2013-12-24 23:25:00,
2013-12-24 18:27:00,12.9,5.3,30.49,North,8,3.0,10.0,71,0.00,,,0.00,Wunderground v.1.12,2013-12-24 23:27:00,
2013-12-24 18:29:00,12.9,5.6,30.49,NE,41,4.0,10.0,72,0.00,,,0.00,Wunderground v.1.12,2013-12-24 23:29:00,
2013-12-24 18:30:00,12.9,5.6,30.49,NNE,20,3.0,10.0,72,0.00,,,0.00,Wunderground v.1.12,2013-12-24 23:30:00,
2013-12-24 18:32:00,12.9,5.6,30.49,NNE,25,6.0,9.0,72,0.00,,,0.00,Wunderground v.1.12,2013-12-24 23:32:00,
2013-12-24 18:34:00,12.9,5.6,30.49,North,11,4.0,11.0,72,0.00,,,0.00,Wunderground v.1.12,2013-12-24 23:34:00,
2013-12-24 18:35:00,12.9,5.9,30.49,NE,51,6.0,11.0,73,0.00,,,0.00,Wunderground v.1.12,2013-12-24 23:35:00,
2013-12-24 18:36:00,12.9,5.9,30.49,NE,37,6.0,9.0,73,0.00,,,0.00,Wunderground v.1.12,2013-12-24 23:36:00,
2013-12-24 18:37:00,12.9,5.9,30.49,NNE,15,4.0,9.0,73,0.00,,,0.00,Wunderground v.1.12,2013-12-24 23:37:00,
2013-12-24 18:38:00,12.9,5.9,30.49,NE,35,4.0,9.0,73,0.00,,,0.00,Wunderground v.1.12,2013-12-24 23:38:00,
2013-12-24 18:39:00,12.8,5.8,30.49,North,1,4.0,9.0,73,0.00,,,0.00,Wunderground v.1.12,2013-12-24 23:39:00,
2013-12-24 18:40:00,12.8,5.8,30.49,North,4,3.0,5.0,73,0.00,,,0.00,Wunderground v.1.12,2013-12-24 23:40:00,
2013-12-24 18:41:00,12.9,5.9,30.50,NE,36,3.0,5.0,73,0.00,,,0.00,Wunderground v.1.12,2013-12-24 23:41:00,
2013-12-24 18:42:00,12.8,5.8,30.49,NNE,22,7.0,7.0,73,0.00,,,0.00,Wunderground v.1.12,2013-12-24 23:42:00,
2013-12-24 18:43:00,12.8,5.8,30.49,North,1,5.0,8.0,73,0.00,,,0.00,Wunderground v.1.12,2013-12-24 23:43:00,
2013-12-24 18:45:00,12.8,5.8,30.50,NNE,23,3.0,4.0,73,0.00,,,0.00,Wunderground v.1.12,2013-12-24 23:45:00,
2013-12-24 18:46:00,12.8,5.8,30.50,NW,323,3.0,5.0,73,0.00,,,0.00,Wunderground v.1.12,2013-12-24 23:46:00,
2013-12-24 18:47:00,12.8,5.8,30.50,North,358,8.0,11.0,73,0.00,,,0.00,Wunderground v.1.12,2013-12-24 23:47:00,
2013-12-24 18:48:00,12.9,5.9,30.50,ENE,63,6.0,12.0,73,0.00,,,0.00,Wunderground v.1.12,2013-12-24 23:48:00,
2013-12-24 18:50:00,12.9,5.9,30.50,North,358,1.0,4.0,73,0.00,,,0.00,Wunderground v.1.12,2013-12-24 23:50:00,
2013-12-24 18:51:00,12.9,5.9,30.50,NNW,328,3.0,4.0,73,0.00,,,0.00,Wunderground v.1.12,2013-12-24 23:51:00,
2013-12-24 18:53:00,12.9,5.9,30.50,NW,316,6.0,9.0,73,0.00,,,0.00,Wunderground v.1.12,2013-12-24 23:53:00,
2013-12-24 18:54:00,12.9,5.9,30.50,NNE,27,3.0,9.0,73,0.00,,,0.00,Wunderground v.1.12,2013-12-24 23:54:00,
2013-12-24 18:55:00,12.9,6.2,30.50,NNW,340,5.0,6.0,74,0.00,,,0.00,Wunderground v.1.12,2013-12-24 23:55:00,
2013-12-24 18:56:00,12.9,6.2,30.50,ENE,59,4.0,6.0,74,0.00,,,0.00,Wunderground v.1.12,2013-12-24 23:56:00,
2013-12-24 18:58:00,12.9,6.2,30.50,East,81,7.0,12.0,74,0.00,,,0.00,Wunderground v.1.12,2013-12-24 23:58:00,
2013-12-24 18:59:00,12.9,6.2,30.50,NE,41,8.0,12.0,74,0.00,,,0.00,Wunderground v.1.12,2013-12-24 23:59:00,
2013-12-24 19:00:00,13.0,6.3,30.50,NNW,340,5.0,6.0,74,0.00,,,0.00,Wunderground v.1.12,2013-12-25 00:00:00,
2013-12-24 19:01:00,13.0,6.3,30.50,North,350,5.0,10.0,74,0.00,,,0.00,Wunderground v.1.12,2013-12-25 00:01:00,
2013-12-24 19:02:00,13.0,6.3,30.50,NE,40,9.0,10.0,74,0.00,,,0.00,Wunderground v.1.12,2013-12-25 00:02:00,
2013-12-24 19:03:00,13.0,6.3,30.51,North,6,10.0,10.0,74,0.00,,,0.00,Wunderground v.1.12,2013-12-25 00:03:00,
2013-12-24 19:04:00,13.0,6.3,30.51,NE,37,2.0,11.0,74,0.00,,,0.00,Wunderground v.1.12,2013-12-25 00:04:00,
2013-12-24 19:05:00,13.0,6.3,30.51,NE,45,7.0,8.0,74,0.00,,,0.00,Wunderground v.1.12,2013-12-25 00:05:00,
2013-12-24 19:06:00,13.0,6.3,30.51,ENE,57,6.0,8.0,74,0.00,,,0.00,Wunderground v.1.12,2013-12-25 00:06:00,
2013-12-24 19:07:00,13.1,6.4,30.51,NNW,333,0.0,8.0,74,0.00,,,0.00,Wunderground v.1.12,2013-12-25 00:07:00,
2013-12-24 19:08:00,13.1,6.7,30.51,North,356,10.0,10.0,75,0.00,,,0.00,Wunderground v.1.12,2013-12-25 00:08:00,
2013-12-24 19:09:00,13.1,6.7,30.51,North,11,7.0,13.0,75,0.00,,,0.00,Wunderground v.1.12,2013-12-25 00:09:00,
2013-12-24 19:10:00,13.1,6.4,30.51,NE,39,6.0,6.0,74,0.00,,,0.00,Wunderground v.1.12,2013-12-25 00:10:00,
2013-12-24 19:11:00,13.1,6.4,30.51,NE,51,10.0,10.0,74,0.00,,,0.00,Wunderground v.1.12,2013-12-25 00:11:00,
2013-12-24 19:12:00,13.1,6.7,30.51,North,349,4.0,10.0,75,0.00,,,0.00,Wunderground v.1.12,2013-12-25 00:12:00,
2013-12-24 19:13:00,13.1,6.7,30.51,NNE,18,3.0,10.0,75,0.00,,,0.00,Wunderground v.1.12,2013-12-25 00:13:00,
2013-12-24 19:14:00,13.1,6.7,30.51,NNE,20,1.0,10.0,75,0.00,,,0.00,Wunderground v.1.12,2013-12-25 00:14:00,
2013-12-24 19:15:00,13.1,6.7,30.52,NW,324,4.0,10.0,75,0.00,,,0.00,Wunderground v.1.12,2013-12-25 00:15:00,
2013-12-24 19:16:00,13.1,6.7,30.51,North,9,7.0,7.0,75,0.00,,,0.00,Wunderground v.1.12,2013-12-25 00:16:00,
2013-12-24 19:17:00,13.1,6.7,30.52,NNE,25,3.0,10.0,75,0.00,,,0.00,Wunderground v.1.12,2013-12-25 00:17:00,
2013-12-24 19:19:00,13.2,6.8,30.52,NNE,32,11.0,12.0,75,0.00,,,0.00,Wunderground v.1.12,2013-12-25 00:19:00,
2013-12-24 19:20:00,13.2,6.8,30.52,NNE,27,6.0,8.0,75,0.00,,,0.00,Wunderground v.1.12,2013-12-25 00:20:00,
2013-12-24 19:21:00,13.1,6.7,30.52,NNE,19,8.0,8.0,75,0.00,,,0.00,Wunderground v.1.12,2013-12-25 00:21:00,
2013-12-24 19:22:00,13.1,6.7,30.52,WNW,291,5.0,11.0,75,0.00,,,0.00,Wunderground v.1.12,2013-12-25 00:22:00,
2013-12-24 19:24:00,13.2,6.8,30.52,North,350,0.0,11.0,75,0.00,,,0.00,Wunderground v.1.12,2013-12-25 00:24:00,
2013-12-24 19:26:00,13.1,7.0,30.52,NNE,25,2.0,5.0,76,0.00,,,0.00,Wunderground v.1.12,2013-12-25 00:26:00,
2013-12-24 19:27:00,13.2,6.8,30.52,NNW,335,5.0,13.0,75,0.00,,,0.00,Wunderground v.1.12,2013-12-25 00:27:00,
2013-12-24 19:29:00,13.2,6.8,30.52,SSE,164,5.0,13.0,75,0.00,,,0.00,Wunderground v.1.12,2013-12-25 00:29:00,
2013-12-24 19:31:00,13.2,6.8,30.52,North,356,2.0,5.0,75,0.00,,,0.00,Wunderground v.1.12,2013-12-25 00:31:00,
2013-12-24 19:32:00,13.2,6.8,30.52,North,11,4.0,7.0,75,0.00,,,0.00,Wunderground v.1.12,2013-12-25 00:32:00,
2013-12-24 19:34:00,13.2,6.8,30.52,NE,44,4.0,12.0,75,0.00,,,0.00,Wunderground v.1.12,2013-12-25 00:34:00,
2013-12-24 19:36:00,13.2,6.8,30.52,NNW,346,2.0,7.0,75,0.00,,,0.00,Wunderground v.1.12,2013-12-25 00:36:00,
2013-12-24 19:37:00,13.2,6.8,30.52,NNE,32,4.0,7.0,75,0.00,,,0.00,Wunderground v.1.12,2013-12-25 00:37:00,
2013-12-24 19:39:00,13.2,6.8,30.52,North,6,11.0,11.0,75,0.00,,,0.00,Wunderground v.1.12,2013-12-25 00:39:00,
2013-12-24 19:40:00,13.2,6.8,30.52,NE,41,6.0,12.0,75,0.00,,,0.00,Wunderground v.1.12,2013-12-25 00:40:00,
2013-12-24 19:41:00,13.2,6.5,30.52,North,5,6.0,15.0,74,0.00,,,0.00,Wunderground v.1.12,2013-12-25 00:41:00,
2013-12-24 19:42:00,13.2,6.5,30.52,NNE,18,7.0,15.0,74,0.00,,,0.00,Wunderground v.1.12,2013-12-25 00:42:00,
2013-12-24 19:44:00,13.1,6.4,30.52,NE,47,9.0,15.0,74,0.00,,,0.00,Wunderground v.1.12,2013-12-25 00:44:00,
2013-12-24 19:45:00,13.1,6.4,30.52,NW,321,9.0,15.0,74,0.00,,,0.00,Wunderground v.1.12,2013-12-25 00:45:00,
2013-12-24 19:46:00,13.1,6.4,30.52,NW,326,2.0,9.0,74,0.00,,,0.00,Wunderground v.1.12,2013-12-25 00:46:00,
2013-12-24 19:47:00,13.1,6.4,30.52,ENE,57,3.0,9.0,74,0.00,,,0.00,Wunderground v.1.12,2013-12-25 00:47:00,
2013-12-24 19:49:00,13.1,6.4,30.52,North,352,8.0,15.0,74,0.00,,,0.00,Wunderground v.1.12,2013-12-25 00:49:00,
2013-12-24 19:50:00,13.1,6.4,30.52,NNW,328,2.0,15.0,74,0.00,,,0.00,Wunderground v.1.12,2013-12-25 00:50:00,
2013-12-24 19:51:00,13.1,6.7,30.52,WNW,297,7.0,7.0,75,0.00,,,0.00,Wunderground v.1.12,2013-12-25 00:51:00,
2013-12-24 19:52:00,13.0,6.6,30.52,NNE,23,8.0,8.0,75,0.00,,,0.00,Wunderground v.1.12,2013-12-25 00:52:00,
2013-12-24 19:53:00,13.1,6.4,30.52,NNW,334,10.0,17.0,74,0.00,,,0.00,Wunderground v.1.12,2013-12-25 00:53:00,
2013-12-24 19:54:00,13.0,6.3,30.52,NW,320,7.0,17.0,74,0.00,,,0.00,Wunderground v.1.12,2013-12-25 00:54:00,
2013-12-24 19:55:00,13.0,6.3,30.52,NW,311,4.0,17.0,74,0.00,,,0.00,Wunderground v.1.12,2013-12-25 00:55:00,
2013-12-24 19:57:00,12.9,6.2,30.52,East,96,4.0,9.0,74,0.00,,,0.00,Wunderground v.1.12,2013-12-25 00:57:00,
2013-12-24 19:59:00,12.9,6.5,30.52,NNE,29,4.0,10.0,75,0.00,,,0.00,Wunderground v.1.12,2013-12-25 00:59:00,
2013-12-24 20:00:00,12.9,6.5,30.52,NNE,12,2.0,10.0,75,0.00,,,0.00,Wunderground v.1.12,2013-12-25 01:00:00,
2013-12-24 20:02:00,12.8,6.4,30.53,NNE,32,14.0,14.0,75,0.00,,,0.00,Wunderground v.1.12,2013-12-25 01:02:00,
2013-12-24 20:03:00,12.8,6.4,30.53,North,1,8.0,15.0,75,0.00,,,0.00,Wunderground v.1.12,2013-12-25 01:03:00,
2013-12-24 20:04:00,12.8,6.4,30.52,North,356,12.0,15.0,75,0.00,,,0.00,Wunderground v.1.12,2013-12-25 01:04:00,
2013-12-24 20:05:00,12.7,6.3,30.52,North,356,6.0,15.0,75,0.00,,,0.00,Wunderground v.1.12,2013-12-25 01:05:00,
2013-12-24 20:07:00,12.7,6.3,30.53,North,359,3.0,7.0,75,0.00,,,0.00,Wunderground v.1.12,2013-12-25 01:07:00,
2013-12-24 20:08:00,12.7,6.3,30.53,NNW,340,6.0,9.0,75,0.00,,,0.00,Wunderground v.1.12,2013-12-25 01:08:00,
2013-12-24 20:09:00,12.7,6.3,30.53,North,5,4.0,9.0,75,0.00,,,0.00,Wunderground v.1.12,2013-12-25 01:09:00,
2013-12-24 20:10:00,12.7,6.3,30.53,NE,34,10.0,10.0,75,0.00,,,0.00,Wunderground v.1.12,2013-12-25 01:10:00,
2013-12-24 20:12:00,12.6,6.2,30.53,West,262,2.0,16.0,75,0.00,,,0.00,Wunderground v.1.12,2013-12-25 01:12:00,
2013-12-24 20:13:00,12.6,6.2,30.53,NNE,29,6.0,16.0,75,0.00,,,0.00,Wunderground v.1.12,2013-12-25 01:13:00,
2013-12-24 20:14:00,12.5,6.1,30.53,North,356,11.0,18.0,75,0.00,,,0.00,Wunderground v.1.12,2013-12-25 01:14:00,
2013-12-24 20:15:00,12.5,6.1,30.53,NNE,25,5.0,18.0,75,0.00,,,0.00,Wunderground v.1.12,2013-12-25 01:15:00,
2013-12-24 20:18:00,12.4,6.0,30.53,NE,34,11.0,17.0,75,0.00,,,0.00,Wunderground v.1.12,2013-12-25 01:18:00,
2013-12-24 20:19:00,12.3,6.2,30.53,NE,48,9.0,17.0,76,0.00,,,0.00,Wunderground v.1.12,2013-12-25 01:19:00,
2013-12-24 20:20:00,12.3,6.2,30.53,NE,43,6.0,17.0,76,0.00,,,0.00,Wunderground v.1.12,2013-12-25 01:20:00,
2013-12-24 20:23:00,12.3,6.2,30.53,NNE,27,9.0,15.0,76,0.00,,,0.00,Wunderground v.1.12,2013-12-25 01:23:00,
2013-12-24 20:25:00,12.3,6.2,30.53,NNW,347,5.0,15.0,76,0.00,,,0.00,Wunderground v.1.12,2013-12-25 01:25:00,
2013-12-24 20:26:00,12.3,6.5,30.53,North,1,11.0,11.0,77,0.00,,,0.00,Wunderground v.1.12,2013-12-25 01:26:00,
2013-12-24 20:28:00,12.2,6.4,30.53,NNW,342,6.0,13.0,77,0.00,,,0.00,Wunderground v.1.12,2013-12-25 01:28:00,
2013-12-24 20:30:00,12.2,6.4,30.53,NE,36,4.0,13.0,77,0.00,,,0.00,Wunderground v.1.12,2013-12-25 01:30:00,
2013-12-24 20:31:00,12.2,6.4,30.53,NNE,25,14.0,14.0,77,0.00,,,0.00,Wunderground v.1.12,2013-12-25 01:31:00,
2013-12-24 20:33:00,12.2,6.4,30.53,NE,39,9.0,18.0,77,0.00,,,0.00,Wunderground v.1.12,2013-12-25 01:33:00,
2013-12-24 20:34:00,12.2,6.4,30.53,NNE,15,11.0,18.0,77,0.00,,,0.00,Wunderground v.1.12,2013-12-25 01:34:00,
2013-12-24 20:35:00,12.1,6.3,30.54,North,359,10.0,18.0,77,0.00,,,0.00,Wunderground v.1.12,2013-12-25 01:35:00,
2013-12-24 20:36:00,12.1,6.6,30.54,North,352,7.0,7.0,78,0.00,,,0.00,Wunderground v.1.12,2013-12-25 01:36:00,
2013-12-24 20:38:00,12.1,6.6,30.54,NNE,30,8.0,16.0,78,0.00,,,0.00,Wunderground v.1.12,2013-12-25 01:38:00,
2013-12-24 20:39:00,12.1,6.6,30.54,NNW,342,5.0,16.0,78,0.00,,,0.00,Wunderground v.1.12,2013-12-25 01:39:00,
2013-12-24 20:40:00,12.1,6.6,30.54,NNW,347,3.0,16.0,78,0.00,,,0.00,Wunderground v.1.12,2013-12-25 01:40:00,
2013-12-24 20:42:00,12.1,6.6,30.54,NE,43,3.0,8.0,78,0.00,,,0.00,Wunderground v.1.12,2013-12-25 01:42:00,
2013-12-24 20:43:00,12.0,6.5,30.53,NW,320,7.0,8.0,78,0.00,,,0.00,Wunderground v.1.12,2013-12-25 01:43:00,
2013-12-24 20:44:00,12.0,6.5,30.53,North,8,5.0,14.0,78,0.00,,,0.00,Wunderground v.1.12,2013-12-25 01:44:00,
2013-12-24 20:45:00,12.0,6.5,30.54,NE,56,8.0,15.0,78,0.00,,,0.00,Wunderground v.1.12,2013-12-25 01:45:00,
2013-12-24 20:47:00,11.9,6.4,30.54,NNE,27,7.0,10.0,78,0.00,,,0.00,Wunderground v.1.12,2013-12-25 01:47:00,
2013-12-24 20:48:00,11.9,6.4,30.54,NNE,17,8.0,10.0,78,0.00,,,0.00,Wunderground v.1.12,2013-12-25 01:48:00,
2013-12-24 20:50:00,11.9,6.4,30.54,North,8,7.0,13.0,78,0.00,,,0.00,Wunderground v.1.12,2013-12-25 01:50:00,
2013-12-24 20:51:00,11.9,6.4,30.54,NNW,335,3.0,10.0,78,0.00,,,0.00,Wunderground v.1.12,2013-12-25 01:51:00,
2013-12-24 20:52:00,11.9,6.4,30.54,NE,48,6.0,10.0,78,0.00,,,0.00,Wunderground v.1.12,2013-12-25 01:52:00,
2013-12-24 20:53:00,11.9,6.4,30.54,NE,41,4.0,10.0,78,0.00,,,0.00,Wunderground v.1.12,2013-12-25 01:53:00,
2013-12-24 20:54:00,11.9,6.4,30.54,ENE,69,6.0,10.0,78,0.00,,,0.00,Wunderground v.1.12,2013-12-25 01:54:00,
2013-12-24 20:55:00,11.8,6.3,30.54,North,352,5.0,15.0,78,0.00,,,0.00,Wunderground v.1.12,2013-12-25 01:55:00,
2013-12-24 20:56:00,11.8,6.3,30.54,NNE,26,8.0,13.0,78,0.00,,,0.00,Wunderground v.1.12,2013-12-25 01:56:00,
2013-12-24 20:57:00,11.8,6.3,30.54,North,360,7.0,13.0,78,0.00,,,0.00,Wunderground v.1.12,2013-12-25 01:57:00,
2013-12-24 20:58:00,11.8,6.3,30.54,North,356,8.0,14.0,78,0.00,,,0.00,Wunderground v.1.12,2013-12-25 01:58:00,
2013-12-24 20:59:00,11.8,6.3,30.54,NNE,19,11.0,14.0,78,0.00,,,0.00,Wunderground v.1.12,2013-12-25 01:59:00,
2013-12-24 21:00:00,11.7,6.2,30.54,North,11,12.0,16.0,78,0.00,,,0.00,Wunderground v.1.12,2013-12-25 02:00:00,
2013-12-24 21:01:00,11.7,5.9,30.55,NNE,16,8.0,13.0,77,0.00,,,0.00,Wunderground v.1.12,2013-12-25 02:01:00,
2013-12-24 21:02:00,11.7,5.9,30.55,ENE,68,5.0,13.0,77,0.00,,,0.00,Wunderground v.1.12,2013-12-25 02:02:00,
2013-12-24 21:04:00,11.6,5.8,30.55,NNE,13,10.0,17.0,77,0.00,,,0.00,Wunderground v.1.12,2013-12-25 02:04:00,
2013-12-24 21:05:00,11.6,5.8,30.55,North,359,4.0,17.0,77,0.00,,,0.00,Wunderground v.1.12,2013-12-25 02:05:00,
2013-12-24 21:07:00,11.6,6.1,30.55,NW,309,0.0,9.0,78,0.00,,,0.00,Wunderground v.1.12,2013-12-25 02:07:00,
2013-12-24 21:09:00,11.6,6.1,30.55,NE,50,6.0,9.0,78,0.00,,,0.00,Wunderground v.1.12,2013-12-25 02:09:00,
2013-12-24 21:10:00,11.5,6.0,30.55,WNW,294,3.0,9.0,78,0.00,,,0.00,Wunderground v.1.12,2013-12-25 02:10:00,
2013-12-24 21:12:00,11.5,6.0,30.55,NE,37,2.0,7.0,78,0.00,,,0.00,Wunderground v.1.12,2013-12-25 02:12:00,
2013-12-24 21:14:00,11.5,6.0,30.55,ENE,71,2.0,8.0,78,0.00,,,0.00,Wunderground v.1.12,2013-12-25 02:14:00,
2013-12-24 21:15:00,11.5,6.0,30.55,ENE,77,1.0,8.0,78,0.00,,,0.00,Wunderground v.1.12,2013-12-25 02:15:00,
2013-12-24 21:17:00,11.4,5.9,30.55,North,6,0.0,5.0,78,0.00,,,0.00,Wunderground v.1.12,2013-12-25 02:17:00,
2013-12-24 21:18:00,11.4,5.9,30.55,NE,44,2.0,5.0,78,0.00,,,0.00,Wunderground v.1.12,2013-12-25 02:18:00,
2013-12-24 21:19:00,11.4,5.9,30.55,ENE,58,2.0,7.0,78,0.00,,,0.00,Wunderground v.1.12,2013-12-25 02:19:00,
2013-12-24 21:20:00,11.4,5.9,30.56,NE,37,1.0,7.0,78,0.00,,,0.00,Wunderground v.1.12,2013-12-25 02:20:00,
2013-12-24 21:22:00,11.4,5.9,30.56,NE,43,5.0,10.0,78,0.00,,,0.00,Wunderground v.1.12,2013-12-25 02:22:00,
2013-12-24 21:23:00,11.3,5.8,30.56,NNW,333,1.0,10.0,78,0.00,,,0.00,Wunderground v.1.12,2013-12-25 02:23:00,
2013-12-24 21:24:00,11.3,5.8,30.56,East,89,1.0,10.0,78,0.00,,,0.00,Wunderground v.1.12,2013-12-25 02:24:00,
2013-12-24 21:25:00,11.3,5.8,30.56,NNE,25,2.0,10.0,78,0.00,,,0.00,Wunderground v.1.12,2013-12-25 02:25:00,
2013-12-24 21:26:00,11.3,5.8,30.56,WNW,300,1.0,3.0,78,0.00,,,0.00,Wunderground v.1.12,2013-12-25 02:26:00,
2013-12-24 21:27:00,11.2,5.7,30.56,NNW,342,4.0,9.0,78,0.00,,,0.00,Wunderground v.1.12,2013-12-25 02:27:00,
2013-12-24 21:28:00,11.2,5.4,30.56,North,352,3.0,10.0,77,0.00,,,0.00,Wunderground v.1.12,2013-12-25 02:28:00,
2013-12-24 21:29:00,11.2,5.4,30.56,ENE,61,6.0,10.0,77,0.00,,,0.00,Wunderground v.1.12,2013-12-25 02:29:00,
2013-12-24 21:30:00,11.2,5.4,30.56,NNE,20,9.0,9.0,77,0.00,,,0.00,Wunderground v.1.12,2013-12-25 02:30:00,
2013-12-24 21:31:00,11.2,5.4,30.56,NNE,20,6.0,13.0,77,0.00,,,0.00,Wunderground v.1.12,2013-12-25 02:31:00,
2013-12-24 21:32:00,11.1,5.3,30.56,North,350,11.0,13.0,77,0.00,,,0.00,Wunderground v.1.12,2013-12-25 02:32:00,
2013-12-24 21:33:00,11.1,5.3,30.55,NNE,20,2.0,13.0,77,0.00,,,0.00,Wunderground v.1.12,2013-12-25 02:33:00,
2013-12-24 21:34:00,11.1,5.3,30.55,NNE,23,2.0,13.0,77,0.00,,,0.00,Wunderground v.1.12,2013-12-25 02:34:00,
2013-12-24 21:35:00,11.1,5.3,30.55,NE,39,4.0,13.0,77,0.00,,,0.00,Wunderground v.1.12,2013-12-25 02:35:00,
2013-12-24 21:36:00,11.1,5.3,30.55,NE,37,6.0,10.0,77,0.00,,,0.00,Wunderground v.1.12,2013-12-25 02:36:00,
2013-12-24 21:37:00,11.1,5.3,30.56,North,6,5.0,13.0,77,0.00,,,0.00,Wunderground v.1.12,2013-12-25 02:37:00,
2013-12-24 21:38:00,11.0,5.2,30.55,North,354,4.0,13.0,77,0.00,,,0.00,Wunderground v.1.12,2013-12-25 02:38:00,
2013-12-24 21:39:00,11.0,5.2,30.55,WNW,285,3.0,15.0,77,0.00,,,0.00,Wunderground v.1.12,2013-12-25 02:39:00,
2013-12-24 21:40:00,11.0,5.2,30.55,NNE,25,4.0,6.0,77,0.00,,,0.00,Wunderground v.1.12,2013-12-25 02:40:00,
2013-12-24 21:41:00,11.0,5.2,30.55,NNW,347,4.0,11.0,77,0.00,,,0.00,Wunderground v.1.12,2013-12-25 02:41:00,
2013-12-24 21:42:00,11.0,5.2,30.55,North,359,10.0,11.0,77,0.00,,,0.00,Wunderground v.1.12,2013-12-25 02:42:00,
2013-12-24 21:44:00,10.9,5.1,30.55,NW,318,6.0,11.0,77,0.00,,,0.00,Wunderground v.1.12,2013-12-25 02:44:00,
2013-12-24 21:45:00,10.9,5.1,30.55,NNE,32,4.0,6.0,77,0.00,,,0.00,Wunderground v.1.12,2013-12-25 02:45:00,
2013-12-24 21:46:00,10.9,5.1,30.55,NE,39,5.0,9.0,77,0.00,,,0.00,Wunderground v.1.12,2013-12-25 02:46:00,
2013-12-24 21:48:00,10.9,5.1,30.55,NE,46,8.0,9.0,77,0.00,,,0.00,Wunderground v.1.12,2013-12-25 02:48:00,
2013-12-24 21:49:00,10.9,5.1,30.55,WNW,295,4.0,9.0,77,0.00,,,0.00,Wunderground v.1.12,2013-12-25 02:49:00,
2013-12-24 21:50:00,10.9,5.1,30.55,NE,53,17.0,17.0,77,0.00,,,0.00,Wunderground v.1.12,2013-12-25 02:50:00,
2013-12-24 21:51:00,10.9,5.1,30.55,NNE,20,9.0,17.0,77,0.00,,,0.00,Wunderground v.1.12,2013-12-25 02:51:00,
2013-12-24 21:52:00,10.8,5.0,30.55,NE,37,6.0,17.0,77,0.00,,,0.00,Wunderground v.1.12,2013-12-25 02:52:00,
2013-12-24 21:53:00,10.8,5.0,30.55,NE,56,7.0,17.0,77,0.00,,,0.00,Wunderground v.1.12,2013-12-25 02:53:00,
2013-12-24 21:54:00,10.8,5.0,30.55,North,7,5.0,17.0,77,0.00,,,0.00,Wunderground v.1.12,2013-12-25 02:54:00,
2013-12-24 21:55:00,10.8,5.0,30.55,NW,311,1.0,6.0,77,0.00,,,0.00,Wunderground v.1.12,2013-12-25 02:55:00,
2013-12-24 21:56:00,10.8,5.0,30.55,NNE,25,3.0,8.0,77,0.00,,,0.00,Wunderground v.1.12,2013-12-25 02:56:00,
2013-12-24 21:58:00,10.8,5.0,30.55,NE,40,2.0,8.0,77,0.00,,,0.00,Wunderground v.1.12,2013-12-25 02:58:00,
2013-12-24 22:00:00,10.7,4.9,30.55,North,8,3.0,6.0,77,0.00,,,0.00,Wunderground v.1.12,2013-12-25 03:00:00,
2013-12-24 22:01:00,10.7,4.9,30.55,NNE,23,9.0,10.0,77,0.00,,,0.00,Wunderground v.1.12,2013-12-25 03:01:00,
2013-12-24 22:03:00,10.7,4.9,30.55,NE,39,2.0,10.0,77,0.00,,,0.00,Wunderground v.1.12,2013-12-25 03:03:00,
2013-12-24 22:05:00,10.6,4.8,30.55,North,1,5.0,8.0,77,0.00,,,0.00,Wunderground v.1.12,2013-12-25 03:05:00,
2013-12-24 22:06:00,10.6,4.8,30.55,NNE,27,5.0,8.0,77,0.00,,,0.00,Wunderground v.1.12,2013-12-25 03:06:00,
2013-12-24 22:08:00,10.5,4.7,30.55,NE,41,3.0,9.0,77,0.00,,,0.00,Wunderground v.1.12,2013-12-25 03:08:00,
2013-12-24 22:10:00,10.5,5.0,30.55,NNW,339,3.0,6.0,78,0.00,,,0.00,Wunderground v.1.12,2013-12-25 03:10:00,
2013-12-24 22:11:00,10.5,5.0,30.55,NE,39,5.0,9.0,78,0.00,,,0.00,Wunderground v.1.12,2013-12-25 03:11:00,
2013-12-24 22:13:00,10.4,4.9,30.55,NNW,342,5.0,9.0,78,0.00,,,0.00,Wunderground v.1.12,2013-12-25 03:13:00,
2013-12-24 22:14:00,10.4,4.9,30.55,NNE,13,8.0,11.0,78,0.00,,,0.00,Wunderground v.1.12,2013-12-25 03:14:00,
2013-12-24 22:15:00,10.3,4.8,30.54,NE,49,3.0,7.0,78,0.00,,,0.00,Wunderground v.1.12,2013-12-25 03:15:00,
2013-12-24 22:16:00,10.3,4.8,30.54,NE,37,2.0,7.0,78,0.00,,,0.00,Wunderground v.1.12,2013-12-25 03:16:00,
2013-12-24 22:18:00,10.3,4.8,30.54,NE,53,7.0,11.0,78,0.00,,,0.00,Wunderground v.1.12,2013-12-25 03:18:00,
2013-12-24 22:19:00,10.3,4.8,30.54,NNE,33,7.0,11.0,78,0.00,,,0.00,Wunderground v.1.12,2013-12-25 03:19:00,
2013-12-24 22:20:00,10.3,4.8,30.54,NE,49,9.0,9.0,78,0.00,,,0.00,Wunderground v.1.12,2013-12-25 03:20:00,
2013-12-24 22:21:00,10.2,4.7,30.54,NE,47,6.0,9.0,78,0.00,,,0.00,Wunderground v.1.12,2013-12-25 03:21:00,
2013-12-24 22:23:00,10.2,4.7,30.54,NNE,30,5.0,9.0,78,0.00,,,0.00,Wunderground v.1.12,2013-12-25 03:23:00,
2013-12-24 22:24:00,10.2,4.7,30.54,NE,37,4.0,9.0,78,0.00,,,0.00,Wunderground v.1.12,2013-12-25 03:24:00,
2013-12-24 22:26:00,10.1,4.9,30.55,NNE,30,6.0,10.0,79,0.00,,,0.00,Wunderground v.1.12,2013-12-25 03:26:00,
2013-12-24 22:28:00,10.1,4.9,30.54,NE,41,2.0,10.0,79,0.00,,,0.00,Wunderground v.1.12,2013-12-25 03:28:00,
2013-12-24 22:29:00,10.1,4.9,30.54,NE,39,3.0,10.0,79,0.00,,,0.00,Wunderground v.1.12,2013-12-25 03:29:00,
2013-12-24 22:31:00,10.1,4.9,30.54,NE,54,1.0,4.0,79,0.00,,,0.00,Wunderground v.1.12,2013-12-25 03:31:00,
2013-12-24 22:33:00,10.0,4.8,30.54,NNE,20,4.0,6.0,79,0.00,,,0.00,Wunderground v.1.12,2013-12-25 03:33:00,
2013-12-24 22:34:00,9.9,4.7,30.54,NE,46,5.0,6.0,79,0.00,,,0.00,Wunderground v.1.12,2013-12-25 03:34:00,
2013-12-24 22:36:00,9.9,4.7,30.54,NNE,30,2.0,5.0,79,0.00,,,0.00,Wunderground v.1.12,2013-12-25 03:36:00,
2013-12-24 22:38:00,9.8,4.6,30.54,North,6,5.0,7.0,79,0.00,,,0.00,Wunderground v.1.12,2013-12-25 03:38:00,
2013-12-24 22:39:00,9.9,4.7,30.54,North,1,4.0,7.0,79,0.00,,,0.00,Wunderground v.1.12,2013-12-25 03:39:00,
2013-12-24 22:41:00,9.8,4.6,30.54,North,356,4.0,4.0,79,0.00,,,0.00,Wunderground v.1.12,2013-12-25 03:41:00,
2013-12-24 22:42:00,9.7,4.8,30.54,NNE,32,3.0,4.0,80,0.00,,,0.00,Wunderground v.1.12,2013-12-25 03:42:00,
2013-12-24 22:43:00,9.8,4.9,30.55,North,5,6.0,6.0,80,0.00,,,0.00,Wunderground v.1.12,2013-12-25 03:43:00,
2013-12-24 22:44:00,9.7,4.8,30.54,NE,39,6.0,7.0,80,0.00,,,0.00,Wunderground v.1.12,2013-12-25 03:44:00,
2013-12-24 22:46:00,9.7,4.8,30.54,NE,48,2.0,7.0,80,0.00,,,0.00,Wunderground v.1.12,2013-12-25 03:46:00,
2013-12-24 22:47:00,9.7,4.8,30.55,North,3,3.0,7.0,80,0.00,,,0.00,Wunderground v.1.12,2013-12-25 03:47:00,
2013-12-24 22:48:00,9.7,4.8,30.54,NNE,18,1.0,9.0,80,0.00,,,0.00,Wunderground v.1.12,2013-12-25 03:48:00,
2013-12-24 22:49:00,9.7,4.8,30.54,North,4,2.0,9.0,80,0.00,,,0.00,Wunderground v.1.12,2013-12-25 03:49:00,
2013-12-24 22:51:00,9.6,4.7,30.54,NNE,32,3.0,7.0,80,0.00,,,0.00,Wunderground v.1.12,2013-12-25 03:51:00,
2013-12-24 22:52:00,9.6,4.7,30.54,NE,40,4.0,7.0,80,0.00,,,0.00,Wunderground v.1.12,2013-12-25 03:52:00,
2013-12-24 22:54:00,9.6,4.7,30.54,NE,51,4.0,7.0,80,0.00,,,0.00,Wunderground v.1.12,2013-12-25 03:54:00,
2013-12-24 22:56:00,9.6,4.7,30.54,North,8,3.0,4.0,80,0.00,,,0.00,Wunderground v.1.12,2013-12-25 03:56:00,
2013-12-24 22:58:00,9.6,4.7,30.54,NE,43,3.0,6.0,80,0.00,,,0.00,Wunderground v.1.12,2013-12-25 03:58:00,
2013-12-24 22:59:00,9.5,4.6,30.54,WNW,295,2.0,6.0,80,0.00,,,0.00,Wunderground v.1.12,2013-12-25 03:59:00,
2013-12-24 23:01:00,9.5,4.8,30.54,NW,321,4.0,6.0,81,0.00,,,0.00,Wunderground v.1.12,2013-12-25 04:01:00,
2013-12-24 23:02:00,9.4,4.7,30.54,WNW,288,3.0,6.0,81,0.00,,,0.00,Wunderground v.1.12,2013-12-25 04:02:00,
2013-12-24 23:03:00,9.5,4.8,30.54,NW,322,2.0,6.0,81,0.00,,,0.00,Wunderground v.1.12,2013-12-25 04:03:00,
2013-12-24 23:04:00,9.4,4.7,30.54,NNW,332,1.0,6.0,81,0.00,,,0.00,Wunderground v.1.12,2013-12-25 04:04:00,
2013-12-24 23:07:00,9.4,4.7,30.54,NE,34,2.0,4.0,81,0.00,,,0.00,Wunderground v.1.12,2013-12-25 04:07:00,
2013-12-24 23:08:00,9.4,4.7,30.54,NNE,29,1.0,4.0,81,0.00,,,0.00,Wunderground v.1.12,2013-12-25 04:08:00,
2013-12-24 23:09:00,9.4,4.7,30.54,NE,40,1.0,4.0,81,0.00,,,0.00,Wunderground v.1.12,2013-12-25 04:09:00,
2013-12-24 23:12:00,9.3,4.6,30.54,NNE,12,0.0,3.0,81,0.00,,,0.00,Wunderground v.1.12,2013-12-25 04:12:00,
2013-12-24 23:13:00,9.3,4.6,30.54,North,11,0.0,3.0,81,0.00,,,0.00,Wunderground v.1.12,2013-12-25 04:13:00,
2013-12-24 23:14:00,9.3,4.6,30.54,NNE,30,2.0,4.0,81,0.00,,,0.00,Wunderground v.1.12,2013-12-25 04:14:00,
2013-12-24 23:15:00,9.3,4.6,30.54,North,354,2.0,5.0,81,0.00,,,0.00,Wunderground v.1.12,2013-12-25 04:15:00,
2013-12-24 23:17:00,9.3,4.9,30.54,North,7,2.0,8.0,82,0.00,,,0.00,Wunderground v.1.12,2013-12-25 04:17:00,
2013-12-24 23:18:00,9.3,4.9,30.54,North,5,0.0,8.0,82,0.00,,,0.00,Wunderground v.1.12,2013-12-25 04:18:00,
2013-12-24 23:19:00,9.2,4.8,30.54,NNE,27,1.0,8.0,82,0.00,,,0.00,Wunderground v.1.12,2013-12-25 04:19:00,
2013-12-24 23:20:00,9.2,4.8,30.54,NE,54,1.0,8.0,82,0.00,,,0.00,Wunderground v.1.12,2013-12-25 04:20:00,
2013-12-24 23:22:00,9.2,4.8,30.54,NNE,13,1.0,4.0,82,0.00,,,0.00,Wunderground v.1.12,2013-12-25 04:22:00,
2013-12-24 23:23:00,9.2,4.8,30.55,North,9,0.0,4.0,82,0.00,,,0.00,Wunderground v.1.12,2013-12-25 04:23:00,
2013-12-24 23:25:00,9.2,4.8,30.55,NE,51,0.0,4.0,82,0.00,,,0.00,Wunderground v.1.12,2013-12-25 04:25:00,
2013-12-24 23:27:00,9.1,4.7,30.55,NE,51,0.0,3.0,82,0.00,,,0.00,Wunderground v.1.12,2013-12-25 04:27:00,
2013-12-24 23:28:00,9.1,4.7,30.55,NE,37,0.0,3.0,82,0.00,,,0.00,Wunderground v.1.12,2013-12-25 04:28:00,
2013-12-24 23:29:00,9.1,4.7,30.55,NNE,23,2.0,3.0,82,0.00,,,0.00,Wunderground v.1.12,2013-12-25 04:29:00,
2013-12-24 23:30:00,9.1,4.7,30.55,NNE,26,0.0,1.0,82,0.00,,,0.00,Wunderground v.1.12,2013-12-25 04:30:00,
2013-12-24 23:32:00,9.0,4.6,30.55,North,360,0.0,1.0,82,0.00,,,0.00,Wunderground v.1.12,2013-12-25 04:32:00,
2013-12-24 23:33:00,9.0,4.6,30.55,North,360,0.0,1.0,82,0.00,,,0.00,Wunderground v.1.12,2013-12-25 04:33:00,
2013-12-24 23:34:00,9.0,4.6,30.54,North,3,0.0,3.0,82,0.00,,,0.00,Wunderground v.1.12,2013-12-25 04:34:00,
2013-12-24 23:35:00,9.0,4.9,30.54,NNW,333,0.0,1.0,83,0.00,,,0.00,Wunderground v.1.12,2013-12-25 04:35:00,
2013-12-24 23:37:00,8.9,4.8,30.54,North,350,0.0,1.0,83,0.00,,,0.00,Wunderground v.1.12,2013-12-25 04:37:00,
2013-12-24 23:38:00,8.9,4.8,30.54,NE,40,2.0,2.0,83,0.00,,,0.00,Wunderground v.1.12,2013-12-25 04:38:00,
2013-12-24 23:39:00,8.9,4.8,30.54,NNE,27,3.0,3.0,83,0.00,,,0.00,Wunderground v.1.12,2013-12-25 04:39:00,
2013-12-24 23:40:00,8.9,4.8,30.54,North,352,2.0,2.0,83,0.00,,,0.00,Wunderground v.1.12,2013-12-25 04:40:00,
2013-12-24 23:41:00,8.9,4.8,30.54,NNE,29,2.0,2.0,83,0.00,,,0.00,Wunderground v.1.12,2013-12-25 04:41:00,
2013-12-24 23:42:00,8.8,4.7,30.54,NNE,26,2.0,2.0,83,0.00,,,0.00,Wunderground v.1.12,2013-12-25 04:42:00,
2013-12-24 23:43:00,8.8,4.7,30.54,North,9,0.0,3.0,83,0.00,,,0.00,Wunderground v.1.12,2013-12-25 04:43:00,
2013-12-24 23:44:00,8.8,4.7,30.54,NNE,31,2.0,3.0,83,0.00,,,0.00,Wunderground v.1.12,2013-12-25 04:44:00,
2013-12-24 23:45:00,8.8,4.7,30.54,North,359,2.0,5.0,83,0.00,,,0.00,Wunderground v.1.12,2013-12-25 04:45:00,
2013-12-24 23:46:00,8.8,4.7,30.54,North,4,1.0,5.0,83,0.00,,,0.00,Wunderground v.1.12,2013-12-25 04:46:00,
2013-12-24 23:48:00,8.8,4.7,30.54,North,11,1.0,5.0,83,0.00,,,0.00,Wunderground v.1.12,2013-12-25 04:48:00,
2013-12-24 23:49:00,8.8,4.7,30.54,North,6,0.0,5.0,83,0.00,,,0.00,Wunderground v.1.12,2013-12-25 04:49:00,
2013-12-24 23:50:00,8.7,4.6,30.54,NW,320,2.0,3.0,83,0.00,,,0.00,Wunderground v.1.12,2013-12-25 04:50:00,
2013-12-24 23:51:00,8.7,4.6,30.54,North,360,1.0,3.0,83,0.00,,,0.00,Wunderground v.1.12,2013-12-25 04:51:00,
2013-12-24 23:53:00,8.6,4.8,30.54,NE,43,3.0,5.0,84,0.00,,,0.00,Wunderground v.1.12,2013-12-25 04:53:00,
2013-12-24 23:54:00,8.7,4.9,30.54,NNE,27,1.0,5.0,84,0.00,,,0.00,Wunderground v.1.12,2013-12-25 04:54:00,
2013-12-24 23:56:00,8.6,4.8,30.54,NNE,25,0.0,2.0,84,0.00,,,0.00,Wunderground v.1.12,2013-12-25 04:56:00,
2013-12-24 23:58:00,8.6,4.8,30.54,NNE,27,5.0,5.0,84,0.00,,,0.00,Wunderground v.1.12,2013-12-25 04:58:00,
2013-12-24 23:59:00,8.6,4.8,30.54,NNE,30,2.0,5.0,84,0.00,,,0.00,Wunderground v.1.12,2013-12-25 04:59:00,